                ,  0.290,  0.386,  0.483,  0.580,  0.676,  0.773,  0.869,  0.966,  1.063,  1.159,  1.256,  1.352,  1.449,  1.545,  1.642,  1.739,  1.835,  1.932,  2.028,  2.125,  2.222,  2.318,  2.415,  2.511,  2.608,  2.705,  2.801,  2.898,  2.994,  3.091,  3.188,  3.284,  3.381,  3.477,  3.574,  3.671,  3.767,  3.864,  3.960,  4.057,  4.153,  4.250,  4.347,  4.443,  4.540,  4.636,  4.733,  4.830,  4.926,  5.023,  5.119,  5.216,  5.313,  5.409,  5.506,  5.602,  5.699,  5.796
1999/06/01 00:00,  999.0,  999.0,   -3.7,  999.0,  999.0,  999.0,   -3.7,  999.0,   -4.7,    1.3,   -0.9,   -1.7,    0.2,    0.1,   -1.4,  999.0,   -1.6,   -4.3,  999.0,  999.0,  -10.6,  -15.6,  999.0,  999.0,  999.0,  999.0,  999.0,  999.0,  -17.7,  999.0,  999.0,  999.0,  999.0,  999.0,  999.0,    0.7,    0.9,  999.0,  999.0,  999.0,  999.0,  999.0,  -42.0,  999.0,  999.0,  999.0,  999.0,  999.0,  -41.6,  -41.5,  999.0,  -41.8,  -41.6,  999.0,  -41.7,  -41.9,  999.0,  -41.5
1999/06/01 00:10,  999.0,   -7.4,   -8.3,  -10.7,  999.0,  999.0,  999.0,   -2.6,   -2.1,   -1.7,   -0.1,    0.8,    1.8,    1.4,    1.1,   -0.6,  999.0,   -4.0,  999.0,  999.0,  -33.5,  -36.5,  -39.1,  999.0,  999.0,  999.0,  999.0,  999.0,  999.0,  999.0,  -41.2,  -41.8,  -41.7,  -20.4,  -27.3,  -20.2,   -8.1,  -20.6,  999.0,    1.1,  -20.9,  -41.8,  -21.0,    1.4,  999.0,  999.0,  -41.3,  999.0,  -41.0,  -41.3,  -42.2,  999.0,  -41.5,  999.0,  -20.5,  -13.0,   -9.9,    0.3
1999/06/01 00:20,  999.0,   -2.7,   -4.8,   -6.6,   -6.6,   -7.0,  999.0,   -7.1,  999.0,   -2.7,   -0.3,    1.0,    0.9,  999.0,   -3.4,   -4.5,   -3.4,  999.0,  999.0,    6.0,  999.0,    2.4,    0.5,    0.4,  999.0,    1.3,    0.9,  999.0,    0.4,  -13.6,  -20.6,  -34.5,  -27.7,  -13.3,  -20.0,  -20.5,  -20.3,  -42.2,  -27.6,  -35.0,  -34.9,  -27.9,  -41.7,  -27.6,  -27.6,  -42.2,  -42.4,  -35.1,  -42.0,  -42.0,  999.0,  -41.8,  -20.9,  -41.8,  999.0,    1.0,    0.8,    0.7
1999/06/01 00:30,  999.0,   -0.5,   -3.4,   -3.0,   -1.8,  999.0,   -0.8,   -3.0,   -1.8,   -2.0,   -0.1,    0.5,   -0.3,   -0.5,   -1.0,    6.2,   19.8,   17.9,   15.2,   13.3,   11.1,  -14.9,  -41.5,  -18.5,    1.6,    0.3,  999.0,  -41.8,  -42.2,  -30.9,  -41.6,  -41.6,  -41.6,  -41.6,  -42.5,  -41.7,  -21.0,    0.4,  -20.4,  -41.6,  -34.4,  -34.9,  -41.6,  -31.2,  -41.8,  -42.1,  -28.1,  -27.9,    0.3,  -41.6,  -42.0,  -42.1,  999.0,  -20.1,  -20.3,   -6.1,  -10.1,    0.0
1999/06/01 00:40,  999.0,   -2.6,   -5.6,   -5.1,  999.0,   -7.6,   -5.6,   -8.1,   -3.6,   -1.1,    0.0,    0.9,    0.5,   -0.9,   -1.4,   -1.7,   -2.8,  999.0,  999.0,  999.0,  999.0,  -33.9,  -34.2,  -36.5,  -40.1,  -41.8,  -26.9,  -41.4,  -20.3,  -31.5,  -41.9,  -42.0,  -42.0,  -42.0,  -20.6,  -20.1,  -21.7,  -24.7,  -20.4,  -41.9,  -20.2,  -41.8,  -41.6,  -42.2,  999.0,  -41.6,  -41.7,  -41.7,  999.0,  999.0,  999.0,  -42.5,  -42.1,  -20.8,    0.7,  -13.8,    1.5,  -13.4
1999/06/01 00:50,  999.0,   -3.6,   -4.8,  999.0,   -6.7,   -7.0,  999.0,   -5.7,   -5.1,   -3.9,   -0.4,   -0.5,   -0.3,   -0.9,   -1.4,   -1.5,   -2.1,  -16.3,  -14.4,  -14.1,  -16.8,  -16.3,   -6.6,   -3.9,   -3.4,  -26.7,   -0.5,  -28.1,   -2.6,   -4.5,   -3.3,    3.5,  -11.0,    2.8,   10.1,    5.0,    3.7,    2.6,    7.8,   -0.4,    3.2,   -0.5,    0.3,    4.8,   -0.6,  999.0,  -20.1,  999.0,  -19.4,    0.1,  -41.9,  -41.6,   -0.1,  999.0,  -42.1,  -10.6,    0.2,  -11.2
1999/06/01 01:00,  999.0,   -1.0,   -1.4,   -5.1,  999.0,  999.0,  999.0,   -6.4,   -5.6,   -3.5,   -2.5,   -1.8,   -1.2,   -1.5,   -1.7,   -8.3,    9.8,   -0.7,   -7.7,   -0.9,    0.9,    0.9,    0.0,    0.3,    0.3,   -4.7,   -2.2,   -2.5,   -1.2,   -1.4,   -0.4,    0.2,   -0.3,    3.1,   22.7,   13.4,   30.2,   32.6,   10.8,   37.9,   41.2,   41.9,   41.8,   42.4,  999.0,   41.6,   41.9,   42.0,   30.7,   31.3,   31.3,   41.8,   41.8,   34.5,   27.9,   20.5,   42.1,   41.1
1999/06/01 01:10,  999.0,   -1.5,   -3.1,   -4.0,   -4.7,   -4.3,   -2.8,   -5.3,   -4.8,   -4.1,   -3.2,   -1.8,   -1.1,   -0.5,   -0.2,   -0.8,   -4.6,    0.4,  999.0,    9.8,  -36.0,  -17.6,    0.4,  -20.6,  -26.8,  -31.5,  -21.0,  -25.2,  -28.9,  -20.4,   -7.8,   -0.2,    0.1,  999.0,    0.1,    1.0,  999.0,   -0.1,   -0.1,  999.0,   -0.8,   -1.0,    0.1,   20.3,   21.8,   21.1,   20.9,  999.0,    0.4,  -16.6,    3.0,   14.2,   -2.9,   -8.7,    5.1,   21.4,    6.9,    0.4
1999/06/01 01:20,  999.0,   -1.7,   -1.4,   -4.3,   -5.1,   -6.2,   -7.5,   -6.2,   -8.3,   -4.9,   -4.1,   -2.4,   -2.1,   -1.9,   -1.6,   -1.9,   -3.2,   -5.5,   -6.7,  999.0,  999.0,  -42.2,  -18.5,    3.0,  -20.7,  -41.9,  -20.9,  -42.1,  -31.1,  -28.9,  -41.6,  -20.5,  -42.5,    1.0,  -20.4,  -41.8,  -41.8,  -41.1,  -20.7,    0.7,  -10.2,  -17.4,   -3.2,  -31.0,  -20.5,  -41.6,  -21.4,  -42.4,  -41.7,  -29.2,  -25.4,  -40.9,  -38.2,  -41.6,  -42.6,  999.0,  999.0,  -41.6
1999/06/01 01:30,  999.0,  999.0,   -0.5,   -4.5,   -5.1,   -4.6,   -8.1,   -5.4,   -5.1,   -3.8,   -3.0,   -1.5,   -1.7,   -2.4,   -2.4,   -2.8,   -7.6,  -10.1,  999.0,   11.6,   41.9,   41.4,   20.7,   21.5,   21.3,   21.4,    0.5,    0.0,  -20.5,    0.5,  -20.6,    0.1,  -20.6,   -6.1,  -11.8,  -18.4,  -41.6,  -20.4,  -20.4,  -42.0,  -41.4,  -41.7,  -27.9,  -27.6,  -20.4,  -27.8,  -27.7,  -27.8,  -42.3,  -22.8,  -32.5,   -9.6,  -20.3,  -15.7,  -13.8,  -41.7,  -27.2,   -2.7
1999/06/01 01:40,  999.0,   -1.1,   -0.9,  999.0,  999.0,   -5.9,   -3.9,   -6.0,   -4.3,   -4.8,   -2.1,   -1.3,   -1.1,   -1.4,   -1.0,   -1.3,   -2.2,   11.4,   17.0,   15.2,   13.4,   12.8,   10.1,   10.4,    7.6,    5.6,    3.1,    4.6,    4.3,    4.4,    0.7,    0.6,    3.0,    0.6,    0.7,    0.3,    0.1,    1.0,  999.0,  999.0,   -9.5,  999.0,    1.0,    0.7,    0.8,    0.2,  999.0,  999.0,    0.4,    0.5,  999.0,    0.3,  999.0,    1.2,    1.7,  999.0,    0.9,    0.9
1999/06/01 01:50,  999.0,   -2.8,   -0.4,   -3.7,   -4.9,   -4.3,   -3.3,   -2.1,   -2.5,   -2.0,   -2.1,   -1.0,   -1.0,   -1.6,   -1.9,   -3.4,   21.5,   15.2,    8.5,    8.9,  -41.9,   14.7,    0.3,    7.4,  -15.4,  -14.5,    8.0,    1.0,    8.3,   -8.3,  -13.1,  -13.8,    1.1,  -20.3,    7.2,   -3.6,   24.3,    0.7,  -31.7,  999.0,  -42.0,  -41.7,  999.0,  999.0,  -21.1,  -41.5,  -41.7,  -41.5,  999.0,  -41.8,  -40.8,  999.0,  -31.5,  -21.1,  -41.2,  -21.5,  -21.7,  -38.3
1999/06/01 02:00,  999.0,   -3.1,   -2.4,   -4.4,   -4.7,   -2.6,   -4.1,   -3.2,   -5.4,   -3.2,   -2.2,   -1.2,   -1.3,   -2.0,   -1.8,   -1.3,   11.6,  999.0,   18.2,   17.4,   15.6,   13.4,   11.6,    9.4,    4.9,    2.5,    4.2,    2.0,    0.8,    0.7,  -12.5,   -7.5,   -6.5,   -6.4,  -11.6,   -6.0,   -7.0,  -10.5,    0.6,   -4.6,   -3.6,   -3.6,  -11.6,  -15.3,  999.0,  -22.7,  -13.1,  -20.9,  -17.2,    9.7,  -41.7,   -3.5,  -41.9,  -28.8,  -18.4,  -42.1,  -41.5,  -27.4
1999/06/01 02:10,  999.0,  999.0,  999.0,  999.0,   -6.5,   -3.4,   -3.4,   -3.7,   -4.9,   -3.3,   -2.0,   -1.2,   -2.3,   -2.3,   -1.8,   -2.0,   -3.6,  999.0,  -12.5,   -8.7,   -5.7,    2.9,   -0.3,   -0.6,   -0.9,   -0.3,   -0.9,   -1.2,   -1.0,   -0.9,   -0.7,   -0.7,  999.0,   -3.2,   -0.9,   -0.8,   -7.8,   -0.8,   -8.9,   -4.7,  -10.8,  -11.0,   -7.2,   -6.3,   -4.7,   14.1,   13.2,   18.2,    7.6,   -4.5,   20.6,   17.4,  -21.7,  -14.6,  -21.8,   -7.2,  -14.1,  -21.5
1999/06/01 02:20,  999.0,   -2.4,   -0.8,  999.0,  999.0,  999.0,   -2.0,   -1.9,   -4.7,   -3.8,   -3.0,   -1.1,   -1.5,   -1.5,   -1.4,  999.0,  999.0,  -21.9,  -34.8,  -19.8,  999.0,   -1.8,   -0.6,  -19.9,   -4.2,  -11.2,   -0.4,  -11.3,  -11.2,   -0.3,   -0.6,   -0.5,   -0.5,   -1.1,   -0.3,   -7.5,   -0.7,   -0.8,   -0.8,   -0.7,   -0.4,   -2.7,   -2.3,   -5.3,   -0.8,  999.0,   -7.5,   20.4,   -2.9,    3.3,   41.1,    1.2,   -7.4,  -14.3,   -0.8,   -0.4,  -14.2,  -21.4
1999/06/01 02:30,  999.0,   -0.9,   -1.7,   -4.2,   -7.9,  999.0,  999.0,   -3.4,   -4.4,   -4.7,   -2.1,   -0.9,   -1.0,   -0.8,   -1.5,  999.0,  999.0,  -14.9,  -11.3,   -7.6,   -5.2,   -2.1,    6.7,   -0.7,  -41.7,  -21.3,  -19.8,   20.1,   -0.8,  999.0,   -1.2,   40.4,  -12.6,    0.0,  -41.6,  -10.7,   -0.4,  -20.8,   -0.3,  -10.3,    4.8,   -0.7,   -6.3,   -0.1,  -21.2,  -17.5,   -1.0,   -0.8,   -3.3,  999.0,  -17.5,   -1.1,   -1.2,   -0.3,   -0.4,  999.0,   -0.9,   -0.8
1999/06/01 02:40,  999.0,  999.0,  999.0,   -3.2,   -3.5,   -6.3,   -3.4,   -6.1,   -5.5,   -3.1,   -1.3,   -1.4,   -1.2,   -1.4,   -2.8,  999.0,  999.0,    5.7,   14.4,   -7.5,   -0.4,  999.0,    5.2,    2.6,    0.6,    0.7,    0.8,    0.4,    0.5,    0.5,    0.7,    0.2,    0.6,    0.9,    0.9,    0.7,    0.6,    1.3,    0.3,  999.0,    0.7,    1.1,  999.0,    1.5,  999.0,    0.6,  999.0,    0.4,  -20.8,  999.0,    0.9,    1.0,  -20.9,  -20.6,  999.0,  -20.8,  -20.5,  -20.7
1999/06/01 02:50,  999.0,  999.0,   -0.6,   -4.4,   -7.2,   -5.7,   -5.7,   -4.4,   -3.1,   -1.8,   -0.9,   -0.6,   -1.1,   -2.2,   -2.7,  999.0,  999.0,   -4.9,   -5.9,  999.0,  999.0,  999.0,  -29.4,  -30.4,  -31.9,  -32.8,  -35.8,  -33.0,  -35.9,  -24.4,  -24.9,  -25.9,  -18.7,    0.4,  -19.8,  -40.9,  -42.0,  -41.8,  -42.2,  -41.9,  -42.4,  -42.0,  -41.7,  -42.3,  -42.2,  -41.8,  -41.8,  -41.9,  -42.6,  -42.6,  -42.0,  -41.7,  -41.8,  -41.6,  -41.9,  -41.9,  -42.0,  -42.3
1999/06/01 03:00,  999.0,  999.0,   -2.4,   -5.0,   -4.8,   -6.1,   -5.1,   -4.2,   -3.1,   -1.1,   -0.2,   -0.5,   -1.8,   -2.0,  999.0,  999.0,  999.0,  999.0,  999.0,  999.0,  999.0,  999.0,  999.0,  -37.6,  -36.1,  -35.1,  -38.3,  -39.6,  -39.4,  -41.0,  -41.2,  -41.6,  -41.7,  -41.8,  -41.6,  -41.7,  -41.8,  -42.0,  -42.0,  -41.6,  -41.9,  -41.7,  -41.6,  -41.8,  -41.8,  -41.7,  -41.7,  -41.4,  -41.7,  -41.5,  -42.4,  -42.0,  -41.8,  -42.5,  -41.6,  -41.7,  -41.9,  -42.0
1999/06/01 03:10,  999.0,  999.0,   -5.8,  999.0,   -5.0,   -6.0,   -4.7,   -4.5,   -4.3,   -1.1,   -0.4,   -1.3,   -2.0,   -2.0,  999.0,  999.0,  999.0,  999.0,   11.3,    9.0,    5.4,    2.3,    0.4,  -41.5,  -41.4,  -20.5,  -42.2,  -41.9,  -42.9,  -20.6,  -42.2,  -27.7,  -27.6,  -20.5,  -41.4,  -27.9,  -20.9,  -20.5,  -41.7,  -27.9,  -27.8,  -28.0,  -42.1,  -27.7,  -27.7,  -41.9,  -28.1,  -27.9,  -20.3,  -41.9,  -27.8,  -27.6,  -41.5,  -41.7,  -42.3,  -42.2,  -41.6,  -42.1
1999/06/01 03:20,  999.0,   -8.1,   -8.6,   -7.2,   -6.4,   -6.2,   -5.4,   -4.6,   -3.4,   -1.9,   -0.7,   -0.6,   -1.9,   -3.6,   -4.6,  999.0,  999.0,   -7.5,  999.0,  999.0,  -16.5,  -16.7,  -18.0,  -25.5,  -29.8,    1.0,  -41.6,  -42.0,    0.7,  -41.8,  -27.6,  -20.9,  -20.4,  -27.5,  -27.8,  -41.7,  -41.5,  -41.5,  -27.4,  -41.9,  -41.9,  -20.6,  -27.4,  -41.6,  -42.2,  -27.5,  -41.4,  -42.1,  -41.7,  -41.8,  -41.6,  -41.5,  -41.9,  999.0,  -41.8,  -41.6,  -41.8,  -41.3
1999/06/01 03:30,  999.0,  -13.6,  -16.9,  -16.0,  -11.0,   -9.1,   -9.9,   -5.6,   -3.5,   -2.3,   -1.0,   -1.9,   -2.5,   -2.7,  999.0,  999.0,  999.0,  999.0,  999.0,  999.0,  999.0,  999.0,  999.0,  -17.2,  999.0,  999.0,  999.0,  999.0,    0.4,  -20.6,  -42.2,  -20.4,  999.0,  -42.0,  -42.2,  -41.9,  -41.6,  -41.6,  -42.0,  -27.6,  -27.4,  -20.1,  -31.3,  -34.8,  -41.8,  -35.0,  -34.8,  -42.3,  -35.0,  -34.8,  -42.2,  -41.7,  -34.7,  -41.8,  -41.6,  -41.6,  -41.9,  -42.2
1999/06/01 03:40,  999.0,  -18.2,  -12.0,  -13.7,  -10.0,   -7.3,   -6.2,   -5.9,   -4.4,   -2.2,   -2.1,   -3.1,   -3.3,   -3.0,   -3.3,  999.0,  999.0,  999.0,  -32.5,  999.0,  999.0,  999.0,  -41.5,  999.0,  -41.7,  -41.6,  -42.0,  -41.6,  -41.9,  -41.7,  -41.6,  -41.8,  -41.4,  -41.7,  -41.8,  -42.0,  -42.0,  -41.7,  -34.7,  -31.5,  -41.5,  -41.6,  -41.9,  -27.4,  -41.3,  -20.1,  -27.3,  -27.8,  -41.5,  -34.8,  -42.0,  -27.6,  -20.3,  -27.2,  -20.5,  -27.4,  -20.5,  -20.1
1999/06/01 03:50,  999.0,  999.0,   -3.2,   -5.6,   -5.8,   -6.0,   -5.8,   -4.0,   -4.3,   -2.9,   -2.1,   -2.8,   -3.9,   -5.1,  999.0,  999.0,  999.0,  999.0,  999.0,  999.0,  999.0,  999.0,  -42.1,  -42.6,  -42.4,  -42.1,  -41.9,  -42.1,  -41.8,  -41.5,  -41.9,  999.0,  -42.4,  999.0,  -41.9,  999.0,  999.0,  999.0,  999.0,  999.0,  999.0,   -0.4,  -42.3,  999.0,  999.0,  999.0,  999.0,  999.0,  999.0,  999.0,  999.0,    0.7,    0.7,  999.0,   -0.1,  999.0,  999.0,  999.0
1999/06/01 04:00,  999.0,  999.0,  999.0,   -4.3,   -5.8,   -5.6,   -6.2,   -5.1,   -4.1,   -4.2,   -2.8,   -3.7,   -4.6,   -3.8,  999.0,  999.0,  999.0,  -26.8,  999.0,  -33.3,  -36.6,  -39.4,  -41.7,  -42.2,  -42.1,  -42.0,  -41.9,  -41.7,  -41.7,  -41.9,  -41.6,  -41.9,  -41.6,  -41.7,  -42.2,  -41.9,  -41.7,  -41.5,  999.0,  999.0,  -41.9,  -41.6,  -41.9,  999.0,  999.0,    0.3,    0.6,    0.6,    0.6,  999.0,    0.7,    1.1,    0.9,    0.5,    0.6,    0.1,    0.6,    0.3
1999/06/01 04:10,  999.0,  999.0,  999.0,   -4.3,   -5.6,   -6.4,   -6.1,   -5.2,   -4.6,   -3.7,   -4.3,   -3.2,  999.0,  999.0,  999.0,  999.0,  999.0,  999.0,  999.0,  999.0,  999.0,  999.0,  999.0,  -40.7,  -41.7,  -41.4,  -41.6,  -42.0,  -42.1,  -41.9,  -41.9,  -41.8,  -41.6,  -41.6,  -41.9,  -41.6,  -41.7,  -41.7,  -41.8,  -41.7,  -41.9,  -42.0,  -41.6,  -41.8,  -41.9,  -41.9,  -42.3,  -41.9,  -42.0,  -42.1,  -42.2,  -41.8,  -41.6,  -42.0,  -41.8,  -41.8,  -42.0,  -41.9
1999/06/01 04:20,  999.0,  999.0,   -7.8,   -3.8,   -6.0,   -6.7,   -5.8,   -5.0,  -13.0,  -13.3,   -2.7,  -20.3,  -21.1,  -20.7,  -21.2,  -21.7,  -23.5,  -26.6,  -30.2,  -32.4,  -32.2,  -38.8,  -42.0,  -40.7,  -41.6,  -41.6,  -41.6,  -42.0,  -41.9,  999.0,  -42.3,  -42.0,  -41.9,  -42.3,  -42.0,  -41.9,  -42.1,  -41.8,  -41.8,  -41.9,  999.0,  -41.9,  -41.9,  -42.1,  -42.0,  -42.3,  -41.9,  -41.7,  -41.4,  -41.7,  -41.8,  -41.6,  -41.7,  -41.8,  -42.0,  -42.3,  -42.2,  999.0
1999/06/01 04:30,  999.0,  999.0,  999.0,  999.0,  999.0,  999.0,  -20.9,   -7.3,   -7.7,   -7.7,   -7.9,   -0.1,  -14.0,  -14.1,    0.2,  -21.8,   -9.3,  -27.6,  -41.6,  -35.0,  -27.9,  -26.6,  -41.2,  -29.0,  -19.7,  -25.8,  -41.5,  -41.9,  -21.0,  -24.1,  -41.8,   -3.4,  -42.3,  -42.3,  -33.2,  -31.6,  -13.4,  -42.2,  -34.9,  -35.1,  -42.1,  -20.3,  -34.9,  -41.3,  -20.9,  -28.1,  -42.1,  -27.7,  -34.7,  -27.5,  -31.3,  -28.1,  -42.2,  -20.2,  -41.7,  -20.5,  -27.6,  -20.7
1999/06/01 04:40,  999.0,  999.0,  999.0,   -3.0,   -4.8,   -6.1,   -5.2,  -21.4,   -2.4,  -10.8,  999.0,  999.0,  999.0,  -21.2,  -21.6,  -10.0,   22.3,    8.5,   -8.8,    5.0,   17.3,    8.5,   20.5,   41.9,   -0.7,   10.5,   20.3,    9.7,   42.0,   -0.6,    9.6,   -1.1,   42.0,   41.9,   36.7,   29.8,   23.3,   17.3,   10.7,  999.0,  999.0,  999.0,    0.4,  999.0,    0.4,    6.4,   19.5,    9.0,  999.0,    6.7,    3.9,    3.0,    0.9,    2.9,    1.2,    1.5,    0.7,    0.7
1999/06/01 04:50,  999.0,  999.0,  999.0,  999.0,  999.0,  999.0,  999.0,   -3.1,   -1.4,  999.0,   -6.7,  999.0,  999.0,  -19.7,  -18.6,  -12.0,   -9.5,   -4.5,   -1.7,   -1.0,   13.4,   -0.9,    6.3,   13.6,   -0.7,   13.5,    6.6,   13.8,    6.7,   13.6,   20.6,  999.0,   41.6,  999.0,   42.9,   27.5,   41.8,  999.0,  999.0,   42.0,  999.0,   42.2,  999.0,   41.4,   40.0,   35.7,   32.0,   27.4,   24.7,   21.0,   16.1,   14.3,    9.7,   10.2,    4.2,    3.5,    0.6,    0.7
1999/06/01 05:00,  999.0,  999.0,  999.0,  999.0,  999.0,  999.0,   -3.8,   -1.4,  999.0,    1.1,  999.0,  999.0,  999.0,  999.0,  -16.4,  -13.8,  -11.9,    8.8,   -0.7,   12.9,   20.4,   20.4,   -0.7,   -0.9,   -0.9,   13.2,   -1.0,   13.5,   13.2,   20.2,   41.4,   41.3,   42.4,   41.5,   41.9,   38.1,   33.4,   28.4,   23.3,   18.0,   13.1,  999.0,  999.0,    0.4,   40.4,   37.3,   17.5,   31.4,   21.2,  999.0,   15.9,  999.0,   15.6,  999.0,    9.1,    3.2,    2.1,    0.3
1999/06/01 05:10,  999.0,  999.0,  999.0,   -3.2,   -5.0,   -3.5,   -3.4,   -2.1,   -0.9,    0.5,  999.0,  999.0,  999.0,  999.0,  999.0,  999.0,  999.0,   -3.1,   -1.0,   -0.7,   -0.6,   -0.6,   -0.8,   -0.4,   -0.7,   -0.7,   -0.7,  999.0,  999.0,  999.0,  999.0,  999.0,  999.0,  999.0,  999.0,  999.0,  999.0,  999.0,  999.0,  999.0,  999.0,   24.5,   22.8,   19.3,   16.9,   17.2,   14.8,   12.8,   10.6,    8.1,    6.0,    3.9,    4.6,    3.8,    1.9,    1.3,    0.5,    0.8
1999/06/01 05:20,  999.0,  999.0,   -2.2,   -4.2,   -4.0,   -3.6,   -4.4,   -4.2,   -2.3,   -0.3,    0.4,    1.4,   20.8,   21.1,   20.6,   20.9,  999.0,   -2.3,   11.7,   42.0,    9.8,   13.2,   10.0,   -0.9,   20.4,   -0.8,  999.0,  999.0,  999.0,  999.0,   41.3,   41.6,  999.0,   42.2,   42.0,   40.3,   38.5,  999.0,   34.1,   32.3,  999.0,   22.7,   23.2,   19.5,   20.4,   16.2,   13.9,   10.7,   12.0,    9.5,    5.3,    3.8,    2.3,    0.6,    0.8,    0.5,    0.6,    0.5
1999/06/01 05:30,  999.0,  999.0,  999.0,   -1.1,   -2.0,   -3.1,   -2.8,   -3.6,   -0.6,   -0.3,    0.0,  999.0,  999.0,  999.0,  999.0,  999.0,  999.0,   -3.2,   -0.5,   -2.3,   -0.8,   -0.7,   -0.4,   -0.7,   -0.6,   -0.2,   -0.6,  999.0,  999.0,  999.0,  999.0,  999.0,   41.3,   41.7,  999.0,  999.0,   38.0,   35.6,   33.3,   31.0,   28.7,   25.3,   23.5,   22.0,  999.0,   16.8,   14.0,   12.2,   11.1,    8.1,    5.7,    3.7,    1.5,    0.1,    1.0,    0.6,    0.9,    0.9
1999/06/01 05:40,  999.0,  999.0,  999.0,  999.0,  999.0,   -2.7,   -3.6,   -2.2,  999.0,  999.0,    9.1,    9.9,   10.2,   22.6,   10.2,   12.5,   22.1,   25.4,   42.0,   21.1,   41.8,   27.5,   20.4,   -0.8,   20.5,   20.7,   41.9,   41.8,   41.3,   41.8,   41.6,   41.6,   40.1,   38.6,   36.1,   33.0,   30.8,   29.6,   27.5,   25.1,   20.7,   15.6,   13.8,   11.7,   15.0,    6.6,    4.6,    8.6,    2.7,    1.7,    1.6,    1.1,    0.6,    0.5,    0.9,    0.2,    0.8,    1.1
1999/06/01 05:50,  999.0,  999.0,  999.0,  999.0,   -1.2,   -2.7,   -4.6,   -5.4,   -0.5,  999.0,  -14.2,  999.0,    2.2,  999.0,  999.0,    0.8,  999.0,    0.8,  999.0,  999.0,    1.0,    0.6,    0.4,    0.6,    0.5,    0.5,    0.8,    0.1,    0.9,    6.1,    0.8,    0.9,    0.7,    1.2,    0.6,    0.8,    6.6,    0.4,    0.2,    0.7,    0.9,    2.3,    0.7,    0.8,    1.0,  999.0,    0.9,    1.0,    0.7,  999.0,  999.0,  999.0,  999.0,    0.5,    0.6,  999.0,    1.1,    0.4
1999/06/01 06:00,  999.0,  999.0,   -0.8,   -2.0,   -1.5,   -2.4,   -2.7,   -1.3,    0.1,    0.4,  999.0,  999.0,  999.0,  999.0,  999.0,  999.0,  999.0,  999.0,  999.0,  999.0,  999.0,  999.0,  999.0,  999.0,  999.0,  999.0,  999.0,  999.0,  999.0,  999.0,  999.0,  999.0,  999.0,  999.0,  999.0,  999.0,  999.0,  999.0,  999.0,  999.0,  999.0,  999.0,  999.0,  999.0,  999.0,  999.0,  999.0,  999.0,  999.0,  999.0,  999.0,  999.0,  999.0,  999.0,  999.0,  999.0,  999.0,  999.0
1999/06/01 06:10,  999.0,   -0.7,   -3.0,   -1.8,   -2.0,   -3.1,   -2.4,   -0.1,   -3.0,   -1.3,    0.9,    1.0,  999.0,  999.0,  999.0,  999.0,  999.0,  999.0,  999.0,  999.0,  999.0,  999.0,  999.0,  999.0,  999.0,  999.0,  999.0,  999.0,  999.0,  999.0,  999.0,  999.0,  999.0,  999.0,  999.0,  999.0,  999.0,  999.0,  999.0,  999.0,  999.0,  999.0,  999.0,  999.0,  999.0,  999.0,  999.0,  999.0,  999.0,  999.0,  999.0,  999.0,  999.0,  999.0,  999.0,  999.0,  999.0,  999.0
1999/06/01 06:20,  999.0,  999.0,   -5.3,   -0.1,   -1.1,    1.9,   -0.4,   -1.2,  999.0,   -0.8,   -0.7,  999.0,    0.2,    3.1,  999.0,  999.0,  999.0,  999.0,  999.0,  999.0,  999.0,  999.0,  999.0,  999.0,  999.0,  999.0,  999.0,  999.0,  999.0,  999.0,  999.0,  999.0,  999.0,  999.0,  999.0,  999.0,  999.0,  999.0,  999.0,  999.0,  999.0,  999.0,  999.0,  999.0,  999.0,  999.0,  999.0,  999.0,  999.0,  999.0,  999.0,  999.0,  999.0,  999.0,  999.0,  999.0,  999.0,  999.0
1999/06/01 06:30,  999.0,  999.0,  999.0,   -1.3,    0.7,    0.5,   -1.0,   -2.2,   -1.0,   -1.4,    0.6,    0.5,  999.0,   -0.8,  999.0,  999.0,  999.0,  999.0,  999.0,  999.0,  999.0,  999.0,  999.0,  999.0,  999.0,  999.0,  999.0,  999.0,  999.0,  999.0,  999.0,  999.0,  999.0,  999.0,  999.0,  999.0,  999.0,  999.0,  999.0,  999.0,  999.0,  999.0,  999.0,  999.0,  999.0,  999.0,  999.0,  999.0,  999.0,  999.0,  999.0,  999.0,  999.0,  999.0,  999.0,  999.0,  999.0,  999.0
1999/06/01 06:40,  999.0,  999.0,  999.0,   -2.1,   -1.4,   -1.8,   -2.5,   -2.3,   -1.6,   -2.2,  999.0,    0.8,  999.0,  999.0,  999.0,  999.0,  999.0,  999.0,  999.0,  999.0,  999.0,  999.0,  999.0,  999.0,  999.0,  999.0,  999.0,  999.0,  999.0,  999.0,  999.0,  999.0,  999.0,  999.0,  999.0,  999.0,  999.0,  999.0,  999.0,  999.0,  999.0,  999.0,  999.0,  999.0,  999.0,  999.0,  999.0,  999.0,  999.0,  999.0,  999.0,  999.0,  999.0,  999.0,  999.0,  999.0,  999.0,  999.0
1999/06/01 06:50,  999.0,  999.0,  999.0,   -1.2,   -1.5,   -2.0,   -2.1,   -2.8,   -1.5,   -1.7,   -0.2,    0.3,    0.0,  999.0,  999.0,  999.0,  999.0,  999.0,  999.0,  999.0,  999.0,  999.0,  999.0,  999.0,  999.0,  999.0,  999.0,  999.0,  999.0,  999.0,  999.0,  999.0,  999.0,  999.0,  999.0,  999.0,  999.0,  999.0,  999.0,  999.0,  999.0,  999.0,  999.0,  999.0,  999.0,  999.0,  999.0,  999.0,  999.0,  999.0,  999.0,  999.0,  999.0,  999.0,  999.0,  999.0,  999.0,  999.0
1999/06/01 07:00,  999.0,  999.0,   -2.4,   -3.4,  999.0,   -2.6,   -3.1,   -4.0,   -2.8,   -2.0,   -0.6,    2.2,    0.6,  999.0,  999.0,  999.0,  999.0,  999.0,  999.0,  999.0,  999.0,  999.0,  999.0,  999.0,  999.0,  999.0,  999.0,  999.0,  999.0,  999.0,  999.0,  999.0,  999.0,  999.0,  999.0,  999.0,  999.0,  999.0,  999.0,  999.0,  999.0,  999.0,  999.0,  999.0,  999.0,  999.0,  999.0,  999.0,  999.0,  999.0,  999.0,  999.0,  999.0,  999.0,  999.0,  999.0,  999.0,  999.0
1999/06/01 07:10,  999.0,   -3.5,   -3.7,   -4.5,   -3.4,   -3.8,   -3.6,   -3.7,   -2.9,   -2.0,   -0.3,  999.0,  999.0,    0.1,  999.0,  999.0,  999.0,  999.0,  999.0,  999.0,  999.0,  999.0,  999.0,  999.0,  999.0,  999.0,  999.0,  999.0,  999.0,  999.0,  999.0,  999.0,  999.0,  999.0,  999.0,  999.0,  999.0,  999.0,  999.0,  999.0,  999.0,  999.0,  999.0,  999.0,  999.0,  999.0,  999.0,  999.0,  999.0,  999.0,  999.0,  999.0,  999.0,  999.0,  999.0,  999.0,  999.0,  999.0
1999/06/01 07:20,  999.0,   -2.9,   -2.5,   -3.8,   -3.4,   -3.2,   -3.4,   -3.9,   -3.7,   -2.0,   -2.2,   -2.1,  999.0,   -1.5,  999.0,  999.0,  999.0,    0.3,  999.0,    0.5,  999.0,  999.0,  999.0,  999.0,  999.0,  999.0,  999.0,  999.0,  999.0,  999.0,  999.0,  999.0,  999.0,  999.0,  999.0,  999.0,  999.0,  999.0,  999.0,  999.0,  999.0,  999.0,  999.0,  999.0,  999.0,  999.0,  999.0,  999.0,  999.0,  999.0,  999.0,  999.0,  999.0,  999.0,  999.0,  999.0,  999.0,  999.0
1999/06/01 07:30,  999.0,   -3.7,   -3.2,   -3.2,   -3.3,   -3.7,   -4.2,   -3.6,   -3.5,   -3.5,    0.4,   -3.1,  999.0,  999.0,  999.0,  999.0,  999.0,  999.0,  999.0,  999.0,   -2.3,  999.0,  999.0,  999.0,  999.0,  999.0,  999.0,   -4.0,  999.0,  999.0,  999.0,  999.0,  999.0,  999.0,  999.0,  999.0,  999.0,  999.0,  999.0,  999.0,  999.0,  999.0,  999.0,  999.0,  999.0,  999.0,  999.0,  999.0,  999.0,  999.0,  999.0,  999.0,  999.0,  999.0,  999.0,  999.0,  999.0,  999.0
1999/06/01 07:40,  999.0,   -3.4,   -3.1,   -2.9,   -3.1,   -3.2,   -3.4,   -2.6,   -2.4,   -2.4,   -1.6,  999.0,  999.0,  999.0,  999.0,  999.0,  999.0,  999.0,  999.0,    0.4,  999.0,  999.0,  999.0,  999.0,  999.0,  999.0,  999.0,  999.0,  999.0,  999.0,  999.0,  999.0,  999.0,  999.0,  999.0,  999.0,  999.0,  999.0,  999.0,  999.0,  999.0,  999.0,  999.0,  999.0,  999.0,  999.0,  999.0,  999.0,  999.0,  999.0,  999.0,  999.0,  999.0,  999.0,  999.0,  999.0,  999.0,  999.0
1999/06/01 07:50,  999.0,   -2.8,   -3.6,   -2.5,   -2.8,   -3.2,   -3.5,   -2.6,   -2.4,   -1.5,    0.2,   -0.6,   -0.6,    0.2,    0.8,  999.0,  999.0,    0.3,  999.0,  999.0,  999.0,    0.1,  999.0,  999.0,  999.0,  999.0,  999.0,  999.0,  999.0,  999.0,  999.0,  999.0,  999.0,  999.0,  999.0,  999.0,  999.0,  999.0,  999.0,  999.0,  999.0,   -1.5,  999.0,  999.0,  999.0,  999.0,  999.0,  999.0,  999.0,  999.0,  999.0,  999.0,  999.0,  999.0,  999.0,  999.0,  999.0,  999.0
1999/06/01 08:00,  999.0,   -3.1,   -3.8,   -3.3,   -3.3,   -3.5,   -4.2,   -3.4,   -2.7,   -1.7,  999.0,  999.0,   -0.4,  999.0,  999.0,  999.0,  999.0,  999.0,  999.0,  999.0,  999.0,  999.0,  999.0,  999.0,  999.0,  999.0,  999.0,  999.0,  999.0,  999.0,  999.0,  999.0,  999.0,  999.0,  999.0,  999.0,  999.0,  999.0,  999.0,  999.0,  999.0,  999.0,  999.0,  999.0,  999.0,  999.0,  999.0,  999.0,  999.0,  999.0,  999.0,  999.0,  999.0,  999.0,  999.0,  999.0,  999.0,  999.0
1999/06/01 08:10,  999.0,   -3.1,   -3.8,   -3.5,   -2.8,   -3.1,   -3.9,   -2.8,   -1.9,   -0.9,    0.1,  999.0,  999.0,    0.1,  999.0,  999.0,  999.0,   -0.8,  999.0,  999.0,  999.0,  999.0,  999.0,  999.0,  999.0,  999.0,  999.0,  999.0,  999.0,  999.0,  999.0,  999.0,  999.0,  999.0,  999.0,  999.0,  999.0,  999.0,  999.0,  999.0,  999.0,  999.0,  999.0,  999.0,  999.0,  999.0,  999.0,  999.0,  999.0,  999.0,  999.0,  999.0,  999.0,  999.0,  999.0,  999.0,  999.0,  999.0
1999/06/01 08:20,  999.0,   -2.6,   -3.3,   -3.3,   -3.0,   -3.5,   -4.4,   -3.9,   -2.2,   -0.8,    0.4,  999.0,  999.0,  999.0,  999.0,  999.0,  999.0,  999.0,  999.0,  999.0,  999.0,  999.0,  999.0,  999.0,  999.0,  999.0,  999.0,   -0.3,  999.0,  999.0,  999.0,  999.0,  999.0,  999.0,  999.0,  999.0,  999.0,  999.0,  999.0,  999.0,  999.0,  999.0,  999.0,  999.0,  999.0,  999.0,  999.0,  999.0,  999.0,  999.0,  999.0,  999.0,  999.0,  999.0,  999.0,  999.0,  999.0,  999.0
1999/06/01 08:30,  999.0,   -2.5,   -2.8,   -3.7,   -3.6,   -3.9,   -4.5,   -4.5,   -2.4,   -0.8,   -0.5,   -0.4,  999.0,    0.2,  999.0,  999.0,  999.0,   -2.7,  999.0,  999.0,  999.0,  999.0,  999.0,  999.0,  999.0,  999.0,  999.0,  999.0,  999.0,  999.0,  999.0,  999.0,  999.0,  999.0,  999.0,  999.0,  999.0,  999.0,  999.0,  999.0,  999.0,  999.0,  999.0,  999.0,  999.0,  999.0,  999.0,  999.0,  999.0,  999.0,  999.0,  999.0,  999.0,  999.0,  999.0,  999.0,  999.0,  999.0
1999/06/01 08:40,  999.0,   -2.2,   -3.7,   -4.8,   -4.3,   -5.3,   -5.9,   -5.9,   -2.9,   -1.6,   -1.0,    0.4,    0.7,  999.0,    0.8,  999.0,  999.0,  999.0,  999.0,  999.0,   -0.8,  999.0,  999.0,  999.0,  999.0,  999.0,  999.0,  999.0,  999.0,  999.0,  999.0,  999.0,  999.0,  999.0,  999.0,  999.0,  999.0,  999.0,  999.0,  999.0,  999.0,  999.0,  999.0,  999.0,  999.0,  999.0,  999.0,  999.0,  999.0,  999.0,  999.0,  999.0,  999.0,  999.0,  999.0,  999.0,  999.0,  999.0
1999/06/01 08:50,  999.0,   -3.0,   -3.1,   -4.8,   -6.3,   -6.4,   -6.5,   -4.8,   -2.4,   -0.5,   -1.6,  999.0,  999.0,  999.0,  999.0,  999.0,  999.0,  999.0,  999.0,  999.0,  999.0,  999.0,  999.0,  999.0,  999.0,  999.0,   -0.4,    1.0,    0.8,  999.0,  999.0,  999.0,  999.0,  999.0,  999.0,  999.0,  999.0,  999.0,  999.0,  999.0,  999.0,  999.0,  999.0,  999.0,  999.0,  999.0,  999.0,  999.0,  999.0,  999.0,  999.0,  999.0,  999.0,  999.0,  999.0,  999.0,  999.0,  999.0
1999/06/01 09:00,  999.0,   -1.8,   -3.8,   -5.9,   -5.8,   -7.3,   -6.9,   -4.7,   -4.0,   -2.0,  999.0,  999.0,  999.0,  999.0,  999.0,  999.0,  999.0,  999.0,  999.0,  999.0,  999.0,  999.0,  999.0,  999.0,  999.0,  999.0,  999.0,  999.0,  999.0,  999.0,  999.0,  999.0,  999.0,  999.0,  999.0,  999.0,  999.0,  999.0,  999.0,  999.0,  999.0,  999.0,  999.0,  999.0,  999.0,  999.0,  999.0,  999.0,  999.0,  999.0,  999.0,  999.0,  999.0,  999.0,  999.0,  999.0,  999.0,  999.0
1999/06/01 09:10,  999.0,   -1.9,   -4.5,   -5.3,   -5.3,   -6.7,   -4.7,   -3.1,   -4.1,   -4.4,  999.0,  999.0,   -0.4,  999.0,   -1.1,  999.0,  999.0,  999.0,  999.0,  999.0,  999.0,  999.0,  999.0,  999.0,  999.0,  999.0,  999.0,  999.0,  999.0,  999.0,  999.0,  999.0,  999.0,  999.0,  999.0,  999.0,  999.0,  999.0,  999.0,  999.0,  999.0,  999.0,  999.0,  999.0,  999.0,  999.0,  999.0,  999.0,  999.0,  999.0,  999.0,  999.0,  999.0,  999.0,  999.0,  999.0,  999.0,  999.0
1999/06/01 09:20,  999.0,   -1.7,   -3.4,   -4.9,   -5.4,   -6.3,   -5.3,   -4.9,   -4.3,   -4.4,   -4.8,  999.0,  999.0,  999.0,  999.0,  999.0,  999.0,  999.0,  999.0,  999.0,  999.0,  999.0,  999.0,    0.0,  999.0,  999.0,  999.0,  999.0,  999.0,  999.0,  999.0,  999.0,  999.0,  999.0,  999.0,  999.0,  999.0,  999.0,  999.0,  999.0,  999.0,  999.0,  999.0,  999.0,  999.0,  999.0,  999.0,  999.0,  999.0,   -2.0,  999.0,  999.0,  999.0,  999.0,  999.0,  999.0,  999.0,  999.0
1999/06/01 09:30,  999.0,   -2.3,   -3.3,   -4.6,   -4.6,   -5.3,   -5.3,   -3.5,   -3.6,   -3.5,   -2.9,  999.0,  999.0,  999.0,  999.0,  999.0,  999.0,  999.0,  999.0,  999.0,  999.0,  999.0,  999.0,  999.0,  999.0,  999.0,  999.0,  999.0,  999.0,  999.0,  999.0,  999.0,  999.0,  999.0,  999.0,  999.0,  999.0,  999.0,   -1.4,   -1.2,  999.0,  999.0,  999.0,  999.0,  999.0,  999.0,  999.0,  999.0,  999.0,  999.0,  999.0,  999.0,  999.0,  999.0,  999.0,  999.0,  999.0,  999.0
1999/06/01 09:40,  999.0,   -2.6,   -2.5,   -2.5,   -3.5,   -4.9,   -5.5,   -5.1,   -3.1,   -2.8,   -3.2,   -2.9,   -0.2,   -1.5,   -1.3,  999.0,  999.0,  999.0,  999.0,  999.0,  999.0,  999.0,  999.0,  999.0,  999.0,  999.0,  999.0,  999.0,  999.0,  999.0,  999.0,  999.0,  999.0,  999.0,  999.0,  999.0,  999.0,  999.0,  999.0,  999.0,  999.0,  999.0,  999.0,  999.0,  999.0,  999.0,  999.0,  999.0,  999.0,  999.0,  999.0,  999.0,  999.0,  999.0,  999.0,  999.0,  999.0,  999.0
1999/06/01 09:50,  999.0,   -3.7,   -3.6,   -3.0,   -2.4,   -4.2,   -5.1,   -5.1,   -3.2,   -3.6,   -3.4,   -0.2,   -1.1,  999.0,  999.0,  999.0,  999.0,  999.0,  999.0,  999.0,  999.0,  999.0,  999.0,  999.0,  999.0,  999.0,  999.0,  999.0,  999.0,  999.0,    0.5,  999.0,  999.0,  999.0,  999.0,  999.0,  999.0,  999.0,  999.0,  999.0,  999.0,  999.0,  999.0,  999.0,  999.0,  999.0,  999.0,  999.0,  999.0,  999.0,  999.0,  999.0,  999.0,  999.0,  999.0,  999.0,  999.0,  999.0
1999/06/01 10:00,  999.0,   -4.1,   -5.5,   -2.8,   -3.5,   -4.8,   -5.4,   -3.6,   -3.6,   -3.9,   -4.4,  999.0,  999.0,  999.0,  999.0,  999.0,  999.0,  999.0,  999.0,  999.0,  999.0,  999.0,  999.0,  999.0,  999.0,  999.0,  999.0,  999.0,  999.0,  999.0,  999.0,  999.0,  999.0,  999.0,  999.0,  999.0,  999.0,  999.0,  999.0,  999.0,  999.0,  999.0,  999.0,  999.0,  999.0,  999.0,  999.0,  999.0,  999.0,  999.0,  999.0,  999.0,  999.0,  999.0,  999.0,  999.0,  999.0,  999.0
1999/06/01 10:10,  999.0,   -4.2,   -4.7,   -5.2,   -5.0,   -4.7,   -4.0,   -2.5,   -3.3,   -3.5,   -3.4,   -3.7,   -1.2,   -1.6,   -0.1,  999.0,  999.0,  999.0,  999.0,  999.0,  999.0,  999.0,  999.0,  999.0,  999.0,    0.4,  999.0,  999.0,  999.0,  999.0,  999.0,  999.0,  999.0,  999.0,  999.0,  999.0,  999.0,  999.0,  999.0,  999.0,  999.0,  999.0,  999.0,  999.0,  999.0,  999.0,  999.0,  999.0,  999.0,  999.0,  999.0,  999.0,  999.0,  999.0,  999.0,  999.0,  999.0,  999.0
1999/06/01 10:20,  999.0,   -2.7,   -3.0,   -5.4,   -4.4,   -4.0,   -3.9,  999.0,   -3.3,   -4.0,   -3.1,   -2.7,   -2.9,   -1.9,  999.0,  999.0,   -3.1,  999.0,  999.0,  999.0,  999.0,  999.0,  999.0,  999.0,  999.0,  999.0,  999.0,  999.0,  999.0,  999.0,  999.0,  999.0,  999.0,  999.0,  999.0,   -2.4,  999.0,  999.0,  999.0,  999.0,  999.0,  999.0,  999.0,  999.0,  999.0,  999.0,  999.0,  999.0,  999.0,  999.0,  999.0,  999.0,  999.0,  999.0,  999.0,  999.0,  999.0,  999.0
1999/06/01 10:30,  999.0,   -0.5,   -1.9,   -6.3,   -5.2,   -3.4,   -4.4,   -3.3,   -4.0,   -3.9,  999.0,   -2.1,   -1.7,   -1.4,  999.0,  999.0,  999.0,  999.0,  999.0,  999.0,  999.0,  999.0,  999.0,  999.0,  999.0,  999.0,  999.0,    0.2,  999.0,  999.0,  999.0,  999.0,  999.0,  999.0,  999.0,  999.0,  999.0,  999.0,  999.0,  999.0,  999.0,  999.0,   -1.9,   -2.1,  999.0,  999.0,  999.0,  999.0,  999.0,  999.0,   -2.0,   -2.0,   -1.6,  999.0,  999.0,  999.0,  999.0,  999.0
1999/06/01 10:40,  999.0,   -2.5,   -4.2,   -3.4,   -3.7,   -4.1,   -3.6,   -3.2,   -4.3,   -4.2,   -3.1,   -1.5,   -1.9,   -0.5,  999.0,  999.0,  999.0,  999.0,  999.0,  999.0,  999.0,  999.0,    0.0,  999.0,  999.0,  999.0,  999.0,  999.0,  999.0,  999.0,  999.0,  999.0,  999.0,  999.0,   -1.2,  999.0,  999.0,  999.0,  999.0,  999.0,  999.0,  999.0,  999.0,  999.0,  999.0,  999.0,  999.0,  999.0,  999.0,  999.0,  999.0,  999.0,   -1.7,   -1.7,  999.0,  999.0,  999.0,  999.0
1999/06/01 10:50,  999.0,   -1.4,   -2.6,   -2.4,   -2.9,   -2.8,   -2.6,   -2.6,   -2.7,   -3.4,   -3.6,   -1.0,    0.3,  999.0,  999.0,  999.0,  999.0,  999.0,  999.0,  999.0,  999.0,  999.0,  999.0,  999.0,  999.0,  999.0,  999.0,  999.0,  999.0,  999.0,  999.0,  999.0,  999.0,  999.0,   -3.6,  999.0,  999.0,  999.0,  999.0,  999.0,  999.0,  999.0,  999.0,  999.0,  999.0,   -4.2,  999.0,  999.0,  999.0,  999.0,  999.0,  999.0,  999.0,  999.0,  999.0,  999.0,   -3.5,  999.0
1999/06/01 11:00,  999.0,   -1.8,   -1.6,   -0.5,   -2.7,   -3.9,   -3.7,   -3.5,   -3.0,   -2.7,   -3.1,   -1.9,   -0.3,  999.0,  999.0,  999.0,  999.0,  999.0,   -2.7,  999.0,  999.0,  999.0,  999.0,  999.0,   -1.0,  999.0,  999.0,  999.0,  999.0,  999.0,  999.0,  999.0,  999.0,  999.0,  999.0,  999.0,  999.0,  999.0,  999.0,  999.0,  999.0,  999.0,  999.0,  999.0,  999.0,  999.0,  999.0,  999.0,  999.0,  999.0,  999.0,  999.0,  999.0,  999.0,  999.0,  999.0,  999.0,  999.0
1999/06/01 11:10,  999.0,   -0.9,   -0.2,   -0.4,  999.0,   -2.7,   -3.1,   -3.7,   -3.6,   -3.1,   -3.5,    0.1,   -1.5,  999.0,  999.0,  999.0,  999.0,  999.0,  999.0,  999.0,  999.0,  999.0,  999.0,   -0.3,  999.0,  999.0,  999.0,  999.0,  999.0,  999.0,  999.0,  999.0,  999.0,  999.0,  999.0,  999.0,  999.0,  999.0,  999.0,  999.0,  999.0,  999.0,  999.0,  999.0,  999.0,  999.0,  999.0,  999.0,  999.0,  999.0,  999.0,  999.0,  999.0,  999.0,  999.0,  999.0,   -1.8,  999.0
1999/06/01 11:20,  999.0,   -3.2,   -2.5,   -4.1,   -2.7,   -3.6,   -2.9,   -1.7,   -3.2,   -3.4,   -4.0,   -2.3,  999.0,  999.0,  999.0,  999.0,  999.0,  999.0,  999.0,  999.0,  999.0,  999.0,  999.0,  999.0,  999.0,  999.0,  999.0,  999.0,  999.0,  999.0,  999.0,  999.0,  999.0,  999.0,  999.0,  999.0,  999.0,  999.0,  999.0,  999.0,  999.0,  999.0,  999.0,  999.0,  999.0,  999.0,  999.0,  999.0,  999.0,  999.0,  999.0,  999.0,  999.0,  999.0,  999.0,  999.0,  999.0,  999.0
1999/06/01 11:30,  999.0,   -2.5,   -4.5,   -2.1,   -3.2,   -3.0,   -2.7,   -3.2,   -3.0,   -3.5,   -3.8,   -2.8,  999.0,  999.0,  999.0,  999.0,   -1.0,  999.0,  999.0,  999.0,  999.0,  999.0,  999.0,  999.0,  999.0,  999.0,  999.0,  999.0,  999.0,  999.0,  999.0,  999.0,  999.0,  999.0,  999.0,  999.0,  999.0,  999.0,  999.0,  999.0,  999.0,  999.0,  999.0,  999.0,  999.0,  999.0,  999.0,  999.0,  999.0,  999.0,  999.0,  999.0,  999.0,  999.0,  999.0,  999.0,  999.0,  999.0
1999/06/01 11:40,  999.0,    3.3,   -0.3,   -2.9,   -3.2,   -2.2,   -2.1,   -0.9,   -1.7,   -3.0,   -3.5,   -2.4,   -0.9,    0.4,  999.0,  999.0,  999.0,  999.0,  999.0,  999.0,  999.0,  999.0,  999.0,  999.0,  999.0,  999.0,  999.0,  999.0,  999.0,  999.0,  999.0,  999.0,  999.0,  999.0,  999.0,  999.0,  999.0,  999.0,  999.0,  999.0,  999.0,  999.0,  999.0,  999.0,  999.0,  999.0,  999.0,  999.0,  999.0,  999.0,  999.0,  999.0,  999.0,  999.0,  999.0,  999.0,  999.0,  999.0
1999/06/01 11:50,  999.0,    0.8,  999.0,   -0.4,    0.6,    1.4,    0.8,   -0.7,   -1.4,   -1.0,   -0.9,   -0.2,   -0.0,  999.0,  999.0,  999.0,  999.0,  999.0,  999.0,  999.0,  999.0,  999.0,  999.0,  999.0,  999.0,  999.0,  999.0,  999.0,  999.0,  999.0,  999.0,  999.0,  999.0,  999.0,  999.0,  999.0,  999.0,  999.0,  999.0,  999.0,  999.0,  999.0,  999.0,  999.0,  999.0,  999.0,  999.0,  999.0,  999.0,  999.0,  999.0,  999.0,  999.0,  999.0,  999.0,  999.0,  999.0,  999.0
1999/06/01 12:00,  999.0,   -2.6,   -5.1,   -5.1,   -2.7,   -1.9,   -2.4,   -2.1,   -1.7,   -2.1,   -1.7,   -1.6,   -1.4,  999.0,  999.0,  999.0,  999.0,  999.0,  999.0,  999.0,  999.0,  999.0,  999.0,  999.0,  999.0,  999.0,  999.0,  999.0,  999.0,  999.0,  999.0,  999.0,  999.0,  999.0,  999.0,  999.0,  999.0,  999.0,  999.0,  999.0,  999.0,  999.0,  999.0,  999.0,  999.0,  999.0,  999.0,  999.0,  999.0,  999.0,  999.0,  999.0,  999.0,  999.0,  999.0,  999.0,  999.0,  999.0
1999/06/01 12:10,  999.0,   -2.4,    0.2,   -1.5,   -2.0,   -1.3,   -2.3,   -1.6,   -1.4,   -1.5,   -1.4,   -1.8,   -1.5,   -0.2,  999.0,  999.0,  999.0,  999.0,    1.4,  999.0,  999.0,  999.0,  999.0,  999.0,  999.0,  999.0,  999.0,  999.0,  999.0,  999.0,  999.0,  999.0,  999.0,  999.0,  999.0,  999.0,  999.0,  999.0,  999.0,  999.0,  999.0,  999.0,  999.0,  999.0,  999.0,  999.0,  999.0,  999.0,  999.0,  999.0,  999.0,  999.0,  999.0,  999.0,  999.0,  999.0,  999.0,  999.0
1999/06/01 12:20,  999.0,   -0.8,    0.1,   -0.6,   -1.4,   -1.9,   -3.3,   -3.6,   -2.7,   -2.2,   -1.9,   -1.7,   -1.1,   -0.1,  999.0,  999.0,  999.0,   -0.8,  999.0,  999.0,  999.0,  999.0,  999.0,  999.0,  999.0,  999.0,  999.0,  999.0,  999.0,  999.0,  999.0,  999.0,  999.0,  999.0,  999.0,  999.0,  999.0,  999.0,  999.0,  999.0,  999.0,  999.0,  999.0,  999.0,  999.0,  999.0,  999.0,  999.0,  999.0,  999.0,  999.0,  999.0,  999.0,  999.0,  999.0,  999.0,  999.0,  999.0
1999/06/01 12:30,  999.0,   -2.1,   -0.8,   -2.4,   -3.8,   -2.8,   -3.2,   -2.5,   -2.4,   -2.6,   -2.3,   -2.3,   -1.2,    1.0,  999.0,    1.9,  999.0,  999.0,  999.0,   -0.1,   -1.2,  999.0,  999.0,  999.0,  999.0,    0.0,  999.0,  999.0,  999.0,  999.0,  999.0,  999.0,  999.0,  999.0,  999.0,  999.0,  999.0,  999.0,  999.0,  999.0,  999.0,  999.0,  999.0,  999.0,  999.0,  999.0,  999.0,  999.0,  999.0,  999.0,  999.0,  999.0,  999.0,  999.0,  999.0,  999.0,  999.0,  999.0
1999/06/01 12:40,  999.0,   -1.9,   -2.0,   -1.5,   -2.5,   -2.6,   -3.5,   -3.3,   -3.1,   -3.1,   -2.0,   -1.2,   -1.0,   -0.6,  999.0,  999.0,  999.0,  999.0,  999.0,    0.2,  999.0,  999.0,  999.0,  999.0,  999.0,  999.0,  999.0,  999.0,  999.0,  999.0,  999.0,  999.0,  999.0,  999.0,  999.0,  999.0,  999.0,  999.0,  999.0,  999.0,  999.0,  999.0,  999.0,  999.0,  999.0,  999.0,  999.0,  999.0,  999.0,  999.0,  999.0,  999.0,  999.0,  999.0,  999.0,  999.0,  999.0,  999.0
1999/06/01 12:50,  999.0,  999.0,   -3.4,   -2.2,   -3.4,   -2.5,   -3.1,   -3.2,   -2.9,   -2.9,   -2.5,   -2.2,   -2.1,   -1.3,  999.0,   -0.1,  999.0,  999.0,   -1.2,  999.0,  999.0,  999.0,  999.0,  999.0,  999.0,  999.0,  999.0,  999.0,  999.0,  999.0,  999.0,  999.0,  999.0,  999.0,  999.0,  999.0,  999.0,  999.0,  999.0,  999.0,  999.0,  999.0,  999.0,  999.0,  999.0,  999.0,  999.0,  999.0,  999.0,  999.0,  999.0,  999.0,  999.0,  999.0,  999.0,  999.0,  999.0,  999.0
1999/06/01 13:00,  999.0,   -1.7,   -0.2,   -1.6,   -1.8,   -2.6,   -2.7,   -2.9,   -3.0,   -2.4,   -2.3,   -1.8,   -0.9,   -0.0,    1.1,    1.2,    1.0,  999.0,  999.0,  999.0,  999.0,  999.0,  999.0,  999.0,  999.0,  999.0,  999.0,  999.0,  999.0,  999.0,  999.0,  999.0,  999.0,  999.0,  999.0,  999.0,  999.0,  999.0,  999.0,  999.0,  999.0,  999.0,  999.0,  999.0,  999.0,  999.0,  999.0,  999.0,  999.0,  999.0,  999.0,  999.0,  999.0,  999.0,  999.0,  999.0,  999.0,  999.0
1999/06/01 13:10,  999.0,  999.0,   -1.6,   -4.4,   -0.7,   -1.6,   -3.0,   -2.5,   -3.2,   -2.4,   -2.3,   -1.5,   -0.9,   -0.7,   -0.3,   -0.2,    0.2,  999.0,  999.0,  999.0,  999.0,  999.0,  999.0,  999.0,  999.0,  999.0,  999.0,  999.0,  999.0,  999.0,  999.0,  999.0,  999.0,  999.0,  999.0,  999.0,  999.0,  999.0,  999.0,  999.0,  999.0,  999.0,  999.0,  999.0,  999.0,  999.0,  999.0,  999.0,  999.0,  999.0,  999.0,  999.0,  999.0,  999.0,  999.0,  999.0,  999.0,  999.0
1999/06/01 13:20,  999.0,  999.0,   -4.1,   -3.5,   -3.6,   -3.2,   -3.9,   -3.4,   -2.9,   -2.7,   -1.6,   -1.2,   -0.5,    0.1,    0.2,   -1.0,  999.0,  999.0,  999.0,  999.0,  999.0,  999.0,  999.0,  999.0,  999.0,  999.0,  999.0,  999.0,  999.0,  999.0,  999.0,  999.0,  999.0,  999.0,  999.0,  999.0,  999.0,  999.0,  999.0,  999.0,  999.0,  999.0,  999.0,  999.0,  999.0,  999.0,  999.0,  999.0,  999.0,  999.0,  999.0,  999.0,  999.0,  999.0,  999.0,  999.0,  999.0,  999.0
1999/06/01 13:30,  999.0,    2.6,   -3.1,   -1.3,   -2.6,   -2.2,   -1.5,   -1.5,   -1.4,   -1.2,   -1.3,   -0.9,    0.1,    0.7,    1.5,  999.0,  999.0,   -0.3,  999.0,  999.0,  999.0,    1.5,  999.0,  999.0,  999.0,  999.0,  999.0,  999.0,  999.0,  999.0,  999.0,  999.0,  999.0,  999.0,  999.0,  999.0,  999.0,  999.0,  999.0,  999.0,  999.0,  999.0,  999.0,  999.0,  999.0,  999.0,  999.0,  999.0,  999.0,  999.0,  999.0,  999.0,  999.0,  999.0,  999.0,  999.0,  999.0,  999.0
1999/06/01 13:40,  999.0,   -6.9,   -6.3,   -2.4,   -3.3,   -2.9,   -2.6,   -2.1,   -1.1,   -0.6,   -0.7,   -0.6,   -0.4,    0.1,    0.9,    2.2,  999.0,  999.0,  999.0,  999.0,  999.0,  999.0,  999.0,  999.0,  999.0,  999.0,  999.0,  999.0,  999.0,  999.0,  999.0,  999.0,  999.0,  999.0,  999.0,  999.0,  999.0,  999.0,  999.0,  999.0,  999.0,  999.0,  999.0,  999.0,  999.0,  999.0,  999.0,  999.0,  999.0,  999.0,  999.0,  999.0,  999.0,  999.0,  999.0,  999.0,  999.0,  999.0
1999/06/01 13:50,  999.0,  999.0,  999.0,    0.4,   -2.7,   -2.4,   -1.4,   -1.5,   -1.9,   -2.7,   -2.0,   -1.6,   -1.3,   -0.6,    0.5,    1.9,  999.0,  999.0,  999.0,  999.0,  999.0,  999.0,  999.0,  999.0,  999.0,  999.0,  999.0,  999.0,  999.0,  999.0,  999.0,  999.0,  999.0,  999.0,  999.0,  999.0,  999.0,  999.0,  999.0,  999.0,  999.0,  999.0,  999.0,  999.0,  999.0,  999.0,  999.0,  999.0,  999.0,  999.0,  999.0,  999.0,  999.0,  999.0,  999.0,  999.0,  999.0,  999.0
1999/06/01 14:00,  999.0,  999.0,   -0.8,   -0.4,   -0.9,    0.2,   -1.3,   -2.4,   -2.2,   -1.6,   -1.2,   -1.2,   -1.8,   -1.1,    0.0,   -0.2,   -0.7,  999.0,  999.0,  999.0,  999.0,  999.0,  999.0,  999.0,  999.0,  999.0,  999.0,  999.0,  999.0,  999.0,  999.0,  999.0,  999.0,  999.0,  999.0,  999.0,  999.0,  999.0,  999.0,  999.0,  999.0,  999.0,  999.0,  999.0,  999.0,  999.0,  999.0,  999.0,  999.0,  999.0,  999.0,  999.0,  999.0,  999.0,  999.0,  999.0,  999.0,  999.0
1999/06/01 14:10,  999.0,  999.0,   -0.8,   -0.6,   -1.1,   -1.0,   -0.2,   -0.2,    0.6,    0.0,   -0.9,   -1.7,   -2.3,   -2.5,   -0.7,    1.0,    2.1,  999.0,  999.0,  999.0,  999.0,  999.0,  999.0,  999.0,  999.0,  999.0,  999.0,  999.0,  999.0,  999.0,  999.0,  999.0,  999.0,  999.0,  999.0,  999.0,  999.0,  999.0,  999.0,  999.0,  999.0,  999.0,  999.0,  999.0,  999.0,  999.0,  999.0,  999.0,  999.0,  999.0,  999.0,  999.0,  999.0,  999.0,  999.0,  999.0,  999.0,  999.0
1999/06/01 14:20,  999.0,  999.0,    0.4,    1.0,    0.4,    0.1,   -0.5,   -0.7,   -0.9,   -1.3,   -1.0,   -1.7,   -1.4,   -0.5,   -0.2,    0.2,    0.4,    0.9,  999.0,  999.0,  999.0,  999.0,  999.0,  999.0,  999.0,  999.0,  999.0,  999.0,  999.0,  999.0,  999.0,  999.0,  999.0,  999.0,  999.0,  999.0,  999.0,  999.0,  999.0,  999.0,  999.0,  999.0,  999.0,  999.0,  999.0,  999.0,  999.0,  999.0,  999.0,  999.0,  999.0,  999.0,  999.0,  999.0,  999.0,  999.0,  999.0,  999.0
1999/06/01 14:30,  999.0,    4.8,    1.6,    1.5,    2.0,    1.6,    0.7,    1.1,    1.0,    0.3,    0.2,   -0.4,   -1.0,   -0.7,   -0.2,    0.5,    1.1,    2.1,    0.6,  999.0,  999.0,  999.0,  999.0,  999.0,  999.0,  999.0,  999.0,  999.0,  999.0,  999.0,  999.0,  999.0,    1.1,  999.0,  999.0,  999.0,  999.0,    1.7,  999.0,  999.0,  999.0,  999.0,  999.0,  999.0,  999.0,  999.0,  999.0,  999.0,  999.0,  999.0,  999.0,  999.0,  999.0,  999.0,  999.0,  999.0,  999.0,  999.0
1999/06/01 14:40,  999.0,   -0.6,    1.5,  999.0,   -0.4,    2.1,    2.5,    2.4,    2.8,    1.7,    0.9,    0.1,    0.4,    0.1,    0.2,    0.8,   -0.0,   -0.2,    1.1,  999.0,  999.0,  999.0,  999.0,  999.0,  999.0,  999.0,  999.0,  999.0,  999.0,  999.0,  999.0,  999.0,  999.0,  999.0,  999.0,  999.0,  999.0,  999.0,  999.0,  999.0,  999.0,  999.0,  999.0,  999.0,  999.0,  999.0,  999.0,  999.0,  999.0,  999.0,  999.0,  999.0,  999.0,  999.0,  999.0,  999.0,  999.0,  999.0
1999/06/01 14:50,  999.0,  999.0,  999.0,    3.1,    1.1,    1.6,    1.6,    1.7,    1.3,    1.0,    0.1,   -0.9,   -0.7,   -0.7,   -0.4,   -0.0,   -0.3,   -0.9,    2.3,    2.8,    1.2,  999.0,  999.0,   -1.3,  999.0,  999.0,  999.0,  999.0,  999.0,  999.0,  999.0,  999.0,  999.0,  999.0,  999.0,  999.0,   -1.4,  999.0,  999.0,  999.0,  999.0,  999.0,  999.0,   -1.3,  999.0,  999.0,  999.0,  999.0,  999.0,  999.0,  999.0,  999.0,  999.0,  999.0,  999.0,  999.0,  999.0,  999.0
1999/06/01 15:00,  999.0,   -0.5,   -2.1,   -2.1,    0.5,    0.5,    1.8,    2.3,    2.6,    1.3,    0.9,   -0.3,   -1.2,   -1.4,   -1.9,   -1.0,    0.5,    1.4,    1.9,    1.3,  999.0,  999.0,  999.0,  999.0,  999.0,  999.0,  999.0,  999.0,  999.0,  999.0,   -1.0,  999.0,  999.0,  999.0,  999.0,  999.0,  999.0,  999.0,  999.0,  999.0,  999.0,  999.0,  999.0,  999.0,  999.0,  999.0,  999.0,  999.0,  999.0,  999.0,  999.0,  999.0,  999.0,  999.0,  999.0,  999.0,  999.0,  999.0
1999/06/01 15:10,  999.0,   -0.1,    0.3,    0.4,    0.7,    1.0,    1.5,    1.5,    1.2,    1.6,    0.4,    0.1,   -0.5,   -1.5,   -1.9,   -0.6,   -0.9,   -1.2,    1.7,    1.8,  999.0,  999.0,  999.0,  999.0,  999.0,  999.0,  999.0,  999.0,  999.0,  999.0,  999.0,  999.0,  999.0,  999.0,  999.0,  999.0,  999.0,  999.0,  999.0,  999.0,  999.0,  999.0,  999.0,  999.0,   -1.0,  999.0,  999.0,  999.0,  999.0,  999.0,  999.0,   -0.1,  999.0,  999.0,  999.0,   -0.4,  999.0,    1.4
1999/06/01 15:20,  999.0,    0.3,    0.5,    0.4,    0.5,    0.4,    1.0,    0.5,    0.9,    2.3,    1.3,    1.3,    0.4,   -0.6,   -1.1,   -1.1,   -0.4,    0.3,    0.9,    0.6,  999.0,  999.0,  999.0,  999.0,  999.0,  999.0,  999.0,  999.0,  999.0,  999.0,  999.0,  999.0,  999.0,  999.0,  999.0,  999.0,  999.0,  999.0,  999.0,  999.0,  999.0,  999.0,  999.0,  999.0,  999.0,  999.0,  999.0,  999.0,  999.0,  999.0,  999.0,  999.0,  999.0,  999.0,  999.0,  999.0,  999.0,  999.0
1999/06/01 15:30,  999.0,   -0.2,    0.4,    0.1,    0.1,   -0.1,    0.6,    1.4,    2.0,    1.7,    1.2,    1.0,    0.9,   -0.3,   -1.7,   -1.8,   -0.6,    0.1,    1.2,    0.4,  999.0,  999.0,  999.0,  999.0,  999.0,  999.0,  999.0,  999.0,  999.0,  999.0,  999.0,  999.0,  999.0,  999.0,  999.0,  999.0,  999.0,  999.0,  999.0,   -0.1,  999.0,  999.0,  999.0,  999.0,  999.0,  999.0,  999.0,  999.0,  999.0,  999.0,  999.0,  999.0,  999.0,  999.0,  999.0,  999.0,  999.0,  999.0
1999/06/01 15:40,  999.0,    0.2,    0.1,    0.3,   -0.2,   -0.2,   -0.0,   -0.2,    1.2,    0.5,    0.6,   -0.2,   -0.8,   -0.9,   -2.1,  999.0,    0.1,  999.0,   -0.0,    0.3,    0.1,  999.0,  999.0,  999.0,  999.0,  999.0,  999.0,  999.0,  999.0,  999.0,  999.0,  999.0,  999.0,  999.0,  999.0,  999.0,  999.0,  999.0,  999.0,  999.0,  999.0,  999.0,  999.0,  999.0,  999.0,  999.0,  999.0,  999.0,  999.0,  999.0,  999.0,  999.0,  999.0,  999.0,  999.0,  999.0,  999.0,  999.0
1999/06/01 15:50,  999.0,   -0.0,    0.4,    0.1,   -0.2,   -0.2,    0.1,    0.5,    0.5,    0.6,    0.6,   -0.1,   -0.3,   -1.1,  999.0,  999.0,   -0.8,   -0.3,   -0.3,   -0.8,  999.0,  999.0,  999.0,  999.0,  999.0,  999.0,  999.0,  999.0,  999.0,  999.0,  999.0,  999.0,  999.0,   -2.0,  999.0,  999.0,  999.0,  999.0,  999.0,  999.0,  999.0,  999.0,  999.0,  999.0,   -1.8,  999.0,  999.0,  999.0,  999.0,  999.0,  999.0,  999.0,  999.0,  999.0,  999.0,  999.0,  999.0,  999.0
1999/06/01 16:00,  999.0,   -0.0,    0.2,    0.5,    0.1,   -0.2,    0.3,    0.3,    0.3,    1.0,   -0.4,    0.2,  999.0,    0.4,  999.0,  999.0,  999.0,    0.5,    0.7,   -0.6,   -1.5,  999.0,  999.0,  999.0,  999.0,  999.0,  999.0,  999.0,  999.0,  999.0,  999.0,  999.0,  999.0,  999.0,  999.0,  999.0,  999.0,  999.0,  999.0,  999.0,  999.0,  999.0,  999.0,  999.0,  999.0,  999.0,  999.0,  999.0,  999.0,  999.0,  999.0,  999.0,  999.0,  999.0,  999.0,  999.0,  999.0,  999.0
1999/06/01 16:10,  999.0,    0.4,    0.2,    0.3,    0.2,   -0.1,    0.0,    0.5,    0.8,   -0.0,    0.6,    0.3,    0.0,  999.0,  999.0,  999.0,    0.6,    0.2,   -0.7,   -1.3,   -2.5,  999.0,  999.0,  999.0,  999.0,  999.0,  999.0,  999.0,  999.0,  999.0,  999.0,    0.9,  999.0,  999.0,  999.0,  999.0,  999.0,  999.0,  999.0,  999.0,  999.0,  999.0,  999.0,  999.0,  999.0,  999.0,  999.0,  999.0,  999.0,  999.0,  999.0,  999.0,  999.0,  999.0,  999.0,  999.0,  999.0,  999.0
1999/06/01 16:20,  999.0,    0.3,    0.4,    0.3,    0.6,    0.6,    0.9,    1.9,    1.3,    0.6,    0.7,   -0.1,  999.0,  999.0,  999.0,  999.0,  999.0,  999.0,    0.4,   -1.1,   -2.4,  999.0,  999.0,  999.0,  999.0,  999.0,  999.0,  999.0,  999.0,  999.0,  999.0,  999.0,  999.0,  999.0,  999.0,  999.0,  999.0,  999.0,  999.0,  999.0,  999.0,  999.0,  999.0,  999.0,  999.0,  999.0,  999.0,  999.0,  999.0,  999.0,  999.0,  999.0,  999.0,  999.0,  999.0,  999.0,  999.0,  999.0
1999/06/01 16:30,  999.0,    0.2,    0.2,    0.4,    0.6,    0.8,    0.7,    0.8,    1.4,    0.9,    1.3,  999.0,  999.0,   -0.1,  999.0,  999.0,  999.0,  999.0,  999.0,   -1.6,   -1.4,   -1.2,  999.0,  999.0,  999.0,  999.0,  999.0,  999.0,  999.0,  999.0,  999.0,  999.0,  999.0,  999.0,  999.0,  999.0,  999.0,  999.0,  999.0,  999.0,  999.0,  999.0,  999.0,  999.0,  999.0,  999.0,  999.0,  999.0,  999.0,  999.0,  999.0,  999.0,  999.0,  999.0,  999.0,  999.0,  999.0,  999.0
1999/06/01 16:40,  999.0,    0.7,    0.5,    0.6,    0.9,    0.1,    1.2,    1.4,    1.5,    1.9,  999.0,  999.0,    0.5,   -0.7,  999.0,  999.0,   -0.3,  999.0,   -0.6,  999.0,  999.0,    2.1,  999.0,  999.0,  999.0,  999.0,  999.0,  999.0,  999.0,  999.0,  999.0,  999.0,  999.0,  999.0,  999.0,  999.0,  999.0,  999.0,  999.0,  999.0,  999.0,  999.0,  999.0,  999.0,  999.0,  999.0,  999.0,  999.0,  999.0,  999.0,  999.0,  999.0,  999.0,  999.0,  999.0,  999.0,  999.0,  999.0
1999/06/01 16:50,  999.0,    0.6,    0.3,    0.1,    0.3,    0.4,    0.9,    1.0,    1.1,    0.9,    1.0,   -0.1,   -1.2,   -1.0,  999.0,  999.0,  999.0,  999.0,   -1.6,   -1.8,  999.0,  999.0,  999.0,  999.0,  999.0,  999.0,  999.0,  999.0,  999.0,  999.0,  999.0,  999.0,  999.0,  999.0,  999.0,  999.0,  999.0,  999.0,  999.0,  999.0,  999.0,  999.0,  999.0,  999.0,  999.0,  999.0,  999.0,  999.0,  999.0,  999.0,  999.0,  999.0,  999.0,  999.0,  999.0,  999.0,  999.0,  999.0
1999/06/01 17:00,  999.0,    0.3,    0.4,    0.6,    0.2,   -0.1,    1.0,    1.2,    2.0,    0.8,  999.0,   -0.1,   -1.2,   -1.1,   -0.9,  999.0,  999.0,  999.0,   -1.8,   -1.2,   -2.8,  999.0,  999.0,  999.0,  999.0,  999.0,  999.0,  999.0,  999.0,  999.0,  999.0,  999.0,  999.0,  999.0,  999.0,  999.0,  999.0,  999.0,  999.0,  999.0,  999.0,  999.0,  999.0,  999.0,  999.0,  999.0,  999.0,  999.0,  999.0,  999.0,  999.0,  999.0,  999.0,  999.0,  999.0,  999.0,  999.0,  999.0
1999/06/01 17:10,  999.0,    1.0,    1.0,    0.8,    0.9,    2.7,    0.9,    1.2,    1.2,    0.3,  999.0,   -0.7,   -2.1,   -1.8,  999.0,  999.0,  999.0,  999.0,  999.0,   -2.5,  999.0,  999.0,  999.0,  999.0,  999.0,  999.0,    0.2,  999.0,  999.0,  999.0,  999.0,  999.0,  999.0,  999.0,  999.0,  999.0,  999.0,  999.0,  999.0,  999.0,  999.0,  999.0,  999.0,  999.0,  999.0,  999.0,  999.0,  999.0,  999.0,  999.0,  999.0,  999.0,  999.0,  999.0,  999.0,  999.0,  999.0,  999.0
1999/06/01 17:20,  999.0,    1.0,    0.7,    0.5,    0.7,    0.0,    0.7,    1.4,    1.5,    1.0,   -0.2,   -0.8,   -1.2,  999.0,  999.0,  999.0,  999.0,  999.0,   -0.7,   -1.4,  999.0,    0.3,  999.0,  999.0,  999.0,    1.5,  999.0,  999.0,  999.0,  999.0,  999.0,  999.0,  999.0,  999.0,  999.0,  999.0,  999.0,  999.0,  999.0,  999.0,  999.0,  999.0,  999.0,  999.0,  999.0,  999.0,  999.0,  999.0,  999.0,  999.0,  999.0,  999.0,  999.0,  999.0,  999.0,  999.0,  999.0,  999.0
1999/06/01 17:30,  999.0,  999.0,    0.5,    0.3,    0.5,    0.7,    0.4,    1.2,    1.7,    0.9,    1.0,   -0.5,   -1.1,  999.0,  999.0,   -0.1,  999.0,  999.0,  999.0,  999.0,  999.0,  999.0,  999.0,  999.0,  999.0,  999.0,  999.0,  999.0,  999.0,  999.0,  999.0,  999.0,  999.0,  999.0,  999.0,  999.0,  999.0,   -0.2,  999.0,  999.0,  999.0,  999.0,  999.0,  999.0,  999.0,  999.0,  999.0,  999.0,  999.0,  999.0,  999.0,  999.0,  999.0,  999.0,  999.0,  999.0,  999.0,  999.0
1999/06/01 17:40,  999.0,    1.5,    0.3,    0.3,    0.2,    0.7,    0.4,    1.4,    1.5,    0.7,    0.4,  999.0,  999.0,  999.0,  999.0,  999.0,  999.0,  999.0,  999.0,  999.0,  999.0,  999.0,  999.0,  999.0,  999.0,  999.0,  999.0,  999.0,  999.0,  999.0,  999.0,  999.0,  999.0,  999.0,  999.0,  999.0,  999.0,  999.0,  999.0,  999.0,  999.0,  999.0,  999.0,  999.0,  999.0,  999.0,  999.0,  999.0,  999.0,  999.0,  999.0,  999.0,  999.0,  999.0,  999.0,  999.0,  999.0,  999.0
1999/06/01 17:50,  999.0,  999.0,    1.6,   -0.3,    0.7,    1.0,    3.6,    0.6,    1.7,    1.3,   -0.0,   -0.3,   -1.0,  999.0,  999.0,  999.0,  999.0,   -0.8,  999.0,  999.0,  999.0,  999.0,  999.0,  999.0,  999.0,  999.0,  999.0,  999.0,  999.0,  999.0,  999.0,  999.0,  999.0,  999.0,  999.0,  999.0,  999.0,  999.0,  999.0,  999.0,  999.0,  999.0,  999.0,  999.0,  999.0,  999.0,  999.0,  999.0,  999.0,  999.0,  999.0,  999.0,  999.0,  999.0,  999.0,  999.0,  999.0,  999.0
1999/06/01 18:00,  999.0,    2.4,    0.2,   -0.0,    0.3,    0.3,  999.0,    1.6,    1.6,    0.8,   -0.2,   -0.4,  999.0,  999.0,  999.0,  999.0,  999.0,  999.0,  999.0,  999.0,  999.0,  999.0,  999.0,  999.0,  999.0,  999.0,  999.0,  999.0,  999.0,  999.0,  999.0,  999.0,  999.0,  999.0,  999.0,  999.0,  999.0,  999.0,  999.0,  999.0,  999.0,  999.0,  999.0,  999.0,  999.0,  999.0,  999.0,  999.0,  999.0,  999.0,  999.0,  999.0,  999.0,  999.0,  999.0,  999.0,  999.0,  999.0
1999/06/01 18:10,  999.0,  999.0,  999.0,    0.7,   -0.0,    1.1,   -1.1,    6.4,    1.6,    2.4,  999.0,  999.0,  999.0,  999.0,  999.0,  999.0,  999.0,  999.0,  999.0,  999.0,  999.0,  999.0,  999.0,  999.0,  999.0,  999.0,  999.0,  999.0,  999.0,  999.0,  999.0,  999.0,  999.0,  999.0,  999.0,  999.0,  999.0,  999.0,  999.0,  999.0,  999.0,  999.0,  999.0,  999.0,  999.0,  999.0,  999.0,  999.0,  999.0,  999.0,  999.0,  999.0,  999.0,  999.0,  999.0,  999.0,  999.0,  999.0
1999/06/01 18:20,  999.0,  999.0,   -1.4,    2.3,    0.6,    1.9,    1.6,    5.6,  999.0,    2.2,    3.9,    0.8,  999.0,  999.0,  999.0,  999.0,  999.0,  999.0,  999.0,  999.0,  999.0,  999.0,  999.0,  999.0,  999.0,  999.0,  999.0,  999.0,  999.0,  999.0,  999.0,  -42.0,  999.0,  999.0,  999.0,  999.0,  -42.2,  999.0,  999.0,  999.0,  999.0,  999.0,  999.0,  999.0,  999.0,  999.0,  -42.1,  999.0,  999.0,  999.0,  999.0,  999.0,  999.0,  999.0,  -42.1,  999.0,  -41.7,  999.0
1999/06/01 18:30,  999.0,  999.0,  999.0,  999.0,   -2.1,   -0.4,  999.0,  999.0,    6.3,    2.2,    1.3,    3.0,  999.0,   -5.1,  999.0,  999.0,  -16.2,  -19.1,  -17.3,  -18.2,  999.0,  999.0,  999.0,  999.0,  999.0,  999.0,  999.0,  999.0,  -41.9,  999.0,  999.0,  -42.0,  999.0,  999.0,  999.0,  999.0,  -42.0,  999.0,  999.0,  999.0,  -42.6,  999.0,  999.0,  -42.2,  999.0,  999.0,  -41.8,  999.0,  -41.8,  -42.6,  -42.0,  999.0,  -42.3,  -42.4,  -42.4,  -42.5,  -42.7,  -42.6
1999/06/01 18:40,  999.0,    2.2,    2.8,    2.3,   -5.2,    1.2,   -2.7,  999.0,  999.0,  999.0,    6.2,   -6.7,  999.0,   -7.4,  999.0,  999.0,   -1.5,  -14.1,  -14.8,  -11.7,  -16.7,  999.0,  999.0,  999.0,  999.0,  -42.2,  -41.5,  999.0,  -41.9,  999.0,  -42.3,  -42.1,  999.0,  999.0,  -42.6,  999.0,  -42.2,  999.0,  999.0,  -42.0,  -41.8,  -41.9,  -41.4,  -42.0,  -41.5,  999.0,  -42.2,  999.0,  -42.1,  -42.3,  -42.0,  999.0,  -41.9,  -42.2,  -42.6,  -42.0,  999.0,  999.0
1999/06/01 18:50,  999.0,  999.0,   -7.4,    1.8,   -1.3,   -0.0,    1.5,    5.7,    2.0,    3.0,    4.1,   -5.5,  999.0,  999.0,  999.0,   -1.8,   -0.9,   -1.4,   -2.3,   -2.0,   -3.4,   -4.4,  999.0,  999.0,  -10.3,  999.0,  999.0,  999.0,  999.0,   -3.0,   -0.8,   -1.0,   -0.7,   13.4,  999.0,   20.3,   41.6,   42.0,   20.6,   -1.2,   -1.1,   -0.8,   13.5,   13.6,   13.7,   14.0,   -0.9,   12.6,   -0.3,  999.0,   -0.1,    7.7,    9.2,    0.8,   10.4,    7.0,   -0.7,    5.5
1999/06/01 19:00,  999.0,   -0.4,  999.0,   -0.3,   -2.0,   -0.2,    0.8,    0.3,    0.4,    1.1,    1.6,   -0.4,    0.1,    0.2,    0.6,   -1.4,   -1.9,   -2.0,   -2.6,   -2.2,    0.8,  999.0,  999.0,  999.0,  999.0,  -11.5,  999.0,   -7.8,  999.0,   -3.1,   -1.7,   -0.7,   -0.4,   -1.0,   -0.4,   -0.7,  999.0,  999.0,   -0.3,   -0.7,   -0.5,   -0.7,   -0.9,   -0.7,   -0.7,   -0.7,   -0.7,   -0.8,   -0.8,    0.2,   -0.8,   -0.6,   -0.6,   -0.7,   -1.0,   -0.7,   -0.6,   -0.6
1999/06/01 19:10,  999.0,  999.0,  999.0,    0.5,   -2.0,   -2.1,   -2.5,   -1.5,    1.3,   -0.5,   -0.8,    1.6,    1.7,    0.1,   -0.1,   -0.5,   -1.7,   -1.8,   -1.6,   -1.4,  999.0,  999.0,  999.0,  999.0,  999.0,  999.0,  999.0,  999.0,  999.0,   -3.5,   -2.2,   -5.9,   -0.9,   -0.6,  999.0,  999.0,   -0.5,   -1.3,   -0.8,   -3.1,   -2.4,   -2.3,   -0.8,  999.0,   -1.0,   -1.3,   -1.3,   -0.6,  999.0,  999.0,   -0.4,   -0.8,   -0.9,  999.0,  -20.7,  999.0,   -0.9,   -0.5
1999/06/01 19:20,  999.0,  999.0,  999.0,  999.0,   -2.5,   -0.3,   -1.5,    2.8,    0.6,    4.4,    4.0,   -0.1,   -0.3,    0.2,   -0.0,    0.4,   -1.0,   -2.2,   -1.8,   -2.0,  999.0,  999.0,  999.0,  999.0,  999.0,  999.0,  999.0,  999.0,  999.0,    1.1,  999.0,  999.0,  999.0,   -5.5,   -3.6,  999.0,  999.0,  999.0,  999.0,   -1.2,   -1.0,   -0.7,  999.0,   -1.0,   -1.3,   -1.5,   -0.7,  999.0,   -0.5,   -0.8,   -0.9,   -1.3,   -0.9,   -0.8,   -0.7,   -0.9,  999.0,   -0.7
1999/06/01 19:30,  999.0,  999.0,   -6.5,   -9.2,   -6.8,   -1.8,    0.2,   -1.7,   -2.4,   -4.9,   -5.1,   -1.3,    0.1,    0.6,    0.3,   -1.0,   -2.1,   -2.9,   -3.0,   -5.9,   -7.8,  999.0,  999.0,  999.0,  999.0,  999.0,  999.0,  999.0,  999.0,  999.0,  999.0,  999.0,  -18.5,  999.0,  -42.1,  999.0,  999.0,  999.0,    0.5,  -42.0,  -41.9,  999.0,    1.3,  -41.5,  -42.2,  -42.1,  -41.3,  999.0,  -41.8,  -41.6,  -41.7,  999.0,  -41.6,  -41.5,  -42.4,  -42.0,  -41.7,  -42.0
1999/06/01 19:40,  999.0,  999.0,  999.0,   -5.8,  999.0,   -0.9,   -3.9,   -4.3,   -0.7,   -0.1,    0.5,    1.0,   -0.4,   -0.6,   -0.6,   -1.8,   -2.2,   -3.8,   -2.9,   -2.7,   -4.7,  999.0,  999.0,  999.0,  999.0,  999.0,  999.0,  999.0,  999.0,  999.0,  -42.2,  -41.8,  -42.4,  -41.6,  -31.8,  -41.5,  -21.4,  -15.0,   -9.1,  -22.4,  -41.8,  -21.3,  -34.5,  -36.9,  -35.4,  -42.2,  -41.5,  999.0,  -39.1,  -33.8,  -40.1,  -41.6,  -23.6,  -42.0,  -31.5,  -32.4,  -41.1,  -42.2
1999/06/01 19:50,  999.0,   -1.3,   -5.3,   -5.0,  999.0,    1.7,   -0.2,   -2.0,   -1.1,    1.5,    3.0,    1.7,   -0.6,   -0.3,    0.4,   -0.3,   -1.7,   -2.1,   -2.3,   -2.7,   -7.2,   -5.1,  999.0,  999.0,  999.0,  -39.6,  -41.2,  -41.9,  -41.6,  -41.4,  -41.7,  -42.3,  -41.7,  -42.1,  -41.6,  -42.0,  -42.1,  -41.9,  -41.6,  -41.9,  -42.4,  -42.2,  -42.1,  -42.1,  -41.6,  -41.7,  -41.7,  -42.2,  -41.9,  -42.1,  -42.0,  -41.7,  -41.8,  -41.6,  -41.8,  -42.1,  -42.0,  -42.6
1999/06/01 20:00,  999.0,  999.0,  999.0,   -3.6,   -1.8,   -3.2,   -1.0,   -0.3,    1.2,    0.1,   -0.4,    0.2,   -0.1,   -0.3,   -0.8,   -3.2,   -1.9,   -0.7,   -1.0,   -4.5,   -4.1,  999.0,  -15.6,  -42.1,  -35.9,  -37.3,  -38.2,  -39.3,  -40.6,  -41.5,  -42.1,  -41.6,  -41.6,  -39.1,  -32.4,  -39.4,  -42.1,  -20.9,  -27.9,  -31.3,  -42.5,  -41.6,  -41.9,  -41.8,  -41.7,  -20.5,  -42.0,  -41.9,  -42.1,  -42.1,  -41.4,  -31.1,  -41.8,  -42.2,  -27.6,    1.0,  -20.5,  -27.6
1999/06/01 20:10,  999.0,   -0.2,    0.2,   -3.0,  999.0,   -0.7,   -0.1,   -2.1,    0.5,    0.4,    0.7,    0.5,    0.3,    0.3,   -0.3,   -1.3,   -2.1,   -2.7,   -2.4,   -3.9,   -6.9,  999.0,  999.0,  999.0,  999.0,  -24.6,  -25.6,  -26.4,  -41.5,  999.0,  -37.5,  -35.7,  -42.0,  -38.3,  -36.8,  -41.4,  999.0,  -34.8,  -39.4,  -38.7,  -41.9,  -39.2,  -40.8,  999.0,  -40.8,  -40.9,  -41.9,  -41.4,  -41.4,  -41.7,  -41.3,  -42.0,  -41.8,  -41.6,  -41.6,  -41.8,  -41.6,  -41.3
1999/06/01 20:20,  999.0,  999.0,   -0.9,    0.2,    0.1,    0.5,  999.0,    0.9,    1.0,    0.8,    0.3,   -0.5,    0.1,   -0.2,   -0.8,   -1.8,   -1.2,   -3.4,   -5.8,   -8.7,  -15.5,  999.0,  999.0,  999.0,  -15.9,  999.0,  999.0,  -13.4,  999.0,  999.0,  -30.9,  999.0,  -42.0,  -41.7,  -41.9,  -41.8,  999.0,  999.0,  -41.1,  -41.7,  -41.9,  -42.1,  -41.4,  -41.8,  -41.2,  -41.4,  -41.6,  -42.4,  -42.0,  -41.1,  -41.4,  -41.8,  -41.5,  -42.0,  -41.9,  -41.6,  -41.4,  -41.4
1999/06/01 20:30,  999.0,  999.0,  999.0,   -7.4,   -0.8,   -0.4,   -0.7,    0.1,   -1.0,    0.2,    0.8,    0.9,    0.5,    0.5,    0.5,   -1.1,   -1.3,   -2.4,   -4.5,   -7.4,  999.0,  999.0,  999.0,  999.0,  999.0,  999.0,  999.0,  999.0,  -39.2,  999.0,  -41.5,  -41.6,  999.0,  -41.3,  -41.8,  -41.3,  -41.5,  -41.8,  -41.9,  -42.3,  -42.2,  -41.9,  -41.4,  -41.8,  -42.0,  -41.9,  -41.5,  -42.1,  -41.7,  -41.7,  -41.2,  -41.5,  -42.1,  -42.0,  999.0,  -41.6,  -41.5,  -41.8
1999/06/01 20:40,  999.0,   -0.7,  999.0,   -4.5,   -0.8,   -1.7,   -2.2,   -0.3,   -0.3,   -0.4,   -1.0,   -0.6,    0.8,    1.5,   -1.4,   -3.2,   -1.7,   -2.5,   -4.9,  -10.3,  999.0,  999.0,  999.0,  999.0,  999.0,  -38.9,  999.0,  999.0,  -43.0,  -41.5,  -41.2,  -42.0,  -41.9,  -41.9,  -42.5,  -42.1,  -41.6,  -40.6,  -41.8,  -41.8,  -42.2,  -41.9,  -41.8,  -41.5,  -41.8,  -41.7,  -41.8,  999.0,  -42.0,  -42.0,  -41.7,  -41.5,  -41.6,  -41.7,  -41.4,  -42.2,  -41.5,  -41.9
1999/06/01 20:50,  999.0,   -1.7,   -0.6,   -0.4,   -1.8,   -1.6,   -1.8,   -1.4,   -0.1,    0.6,    0.3,    0.5,    0.8,   -0.6,   -2.4,   -1.5,   -2.4,   -4.0,   -5.8,   -8.3,  999.0,  999.0,  999.0,  -20.0,  999.0,  -40.8,  999.0,  -41.5,  -41.3,  -41.9,  -41.5,  999.0,  -41.5,  -41.8,  -42.2,  -41.7,  -40.8,  -41.8,  999.0,  -41.5,  -41.7,  -42.1,  -41.9,  -42.0,  -42.4,  -41.7,  -41.4,  -40.9,  -41.6,  -41.5,  -41.6,  -41.7,  -41.9,  -41.5,  -41.6,  -41.9,  -42.2,  -41.5
1999/06/01 21:00,  999.0,   -1.4,   -2.1,   -1.9,   -1.4,   -1.9,   -2.1,   -0.7,   -0.6,    0.2,    0.1,    0.6,    0.5,   -0.0,   -1.5,   -1.6,   -2.5,   -4.5,   -5.7,  -12.4,  -14.7,  999.0,  999.0,  999.0,  999.0,  999.0,  999.0,  999.0,  999.0,  -41.9,  -41.1,  -41.9,  -31.5,  -34.8,  -41.7,  -42.0,    0.1,  -20.9,  -41.8,  -31.5,  -42.0,  999.0,  999.0,  -41.5,  -41.1,  -41.5,  -42.0,  -42.1,  -42.1,  999.0,  999.0,  -41.7,  -41.7,  -41.6,  -20.7,  -19.9,  -31.0,  -27.8
1999/06/01 21:10,  999.0,   -2.5,   -2.5,   -0.3,   -1.2,   -1.8,   -2.2,   -0.4,   -0.2,   -0.2,  999.0,    0.0,   -0.3,    0.5,    0.0,   -2.3,   -2.5,  999.0,  999.0,   -5.1,   -5.9,  999.0,  999.0,  999.0,  999.0,  999.0,  999.0,  -40.4,  -41.7,  -34.0,  -34.7,  -40.0,  -37.3,  -37.9,  -40.2,  -40.6,  999.0,  -42.0,  -42.4,  -42.0,  -41.9,  -40.6,  999.0,  -35.9,  -40.1,  -38.9,  -30.1,  -42.2,  -42.5,  -22.8,  999.0,  -22.0,  -20.5,  -12.6,  -28.1,  -41.9,   41.8,  999.0
1999/06/01 21:20,  999.0,    0.2,   -1.7,   -1.3,   -0.9,   -1.1,   -0.7,   -1.2,    0.7,    0.3,    0.8,    0.9,   -0.8,   -0.4,    0.1,   -1.6,   -2.3,   -2.2,   -4.6,   -7.2,   -8.8,  999.0,  999.0,  999.0,  999.0,  999.0,  999.0,  999.0,  999.0,  999.0,  -41.6,  -40.4,  -41.7,  -41.7,  -42.1,  -42.2,  999.0,  999.0,  -42.2,  -41.5,  -41.5,  -41.8,  -41.6,  -41.7,  -41.9,  -41.7,  -41.9,  -41.9,  -42.3,  -41.4,  -41.4,  -41.6,  -42.1,  -41.8,  -41.6,  -41.8,  -41.6,  -42.4
1999/06/01 21:30,  999.0,   -2.4,   -2.1,   -0.5,   -0.5,   -1.1,   -1.7,  999.0,   -0.2,    0.4,    0.5,   -0.5,   -2.0,   -3.0,   -3.2,   -5.7,  999.0,  999.0,   -9.1,  999.0,  999.0,  999.0,  999.0,  999.0,  999.0,  -42.6,  -41.8,  -42.0,  -42.1,  -41.7,  -41.6,  -41.5,  -41.9,  -41.8,  -41.7,  -41.7,  -41.9,  -41.5,  -40.9,  -41.9,  -42.0,  -41.9,  999.0,  -41.6,  -41.6,  -42.1,  -41.8,  -41.3,  -41.7,  -41.3,  -41.7,  -41.8,  -41.5,  -41.2,  -41.7,  -41.3,  -41.2,  -41.7
1999/06/01 21:40,  999.0,   -4.3,   -1.6,    0.9,   -0.7,   -0.7,   -1.3,    0.2,    0.7,    0.9,   -1.0,    0.3,   -1.4,   -1.3,   -1.0,   -1.4,   -4.7,   -6.9,   -9.6,  -16.7,  999.0,  999.0,  999.0,  999.0,  999.0,  999.0,  -41.4,  -41.4,  999.0,  -41.5,  999.0,  999.0,  -41.8,  -27.7,  -41.6,  -42.5,  -41.3,  -20.1,  999.0,  -20.7,  999.0,  999.0,  -31.2,  -34.8,  -25.1,  -25.1,  -31.3,  -29.9,  -41.7,  -41.7,  -41.7,  -18.6,  -22.6,  999.0,  -27.2,  -31.7,  -36.4,  -24.9
1999/06/01 21:50,  999.0,   -2.8,   -4.0,   -2.0,   -2.4,   -1.8,   -1.5,   -1.3,   -0.1,    0.3,    0.2,   -0.5,   -1.7,   -3.5,   -3.7,   -4.2,   -5.5,   -6.8,   -6.4,   -9.3,  -14.2,  999.0,  999.0,  -34.5,  -36.9,  -37.0,  999.0,  -41.7,  -43.1,  -42.2,  -41.6,  -41.7,  -41.6,  -41.6,  -41.7,  -42.0,  -41.3,  -41.7,  -42.1,  -42.0,  -27.6,  -31.1,  -34.6,  999.0,  -41.6,  -20.4,  -31.3,  -42.1,  -20.2,  -42.0,  -41.4,  -41.4,  -41.9,  -42.2,  -41.8,  999.0,  -41.8,  -41.3
1999/06/01 22:00,  999.0,  999.0,  999.0,   -2.4,   -1.2,   -2.9,   -1.2,   -0.3,   -0.2,   -0.8,   -1.9,   -1.3,   -1.2,   -2.9,   -2.8,   -2.4,   -3.0,   -4.7,   -0.9,   -1.8,  -11.5,  999.0,  -29.9,  -33.2,  -34.9,  999.0,  -39.3,  -41.0,  -40.9,  -41.5,  -40.6,  999.0,  999.0,  999.0,  -41.2,  -42.0,  -41.5,  999.0,  -41.9,  -41.7,  999.0,  -42.5,  -41.7,  -42.5,  -42.0,  -42.0,  -42.5,  999.0,  -41.8,  -42.1,  999.0,  -41.9,  -42.0,  -41.9,  -42.0,  -42.2,  -42.1,  -41.9
1999/06/01 22:10,  999.0,    0.3,   -1.1,   -1.7,   -1.1,   -1.4,   -0.6,    0.0,    0.2,    0.0,   -0.7,    0.4,    0.2,   -0.9,   -0.8,   -0.7,    0.3,    0.3,   -1.1,   -3.5,   -5.4,   -7.9,  999.0,  999.0,  999.0,  999.0,  -37.6,  -40.0,  999.0,  999.0,  -41.9,  -41.6,  -41.9,  -41.8,  -42.0,  -41.5,  -42.8,  -41.5,  -41.8,  -41.7,  -41.6,  -41.5,  -42.0,  -42.0,  -41.3,  -40.9,  -40.8,  -41.7,  -42.2,  -41.9,  -42.0,  999.0,  -42.5,  -41.6,  -42.6,  -41.9,  -41.6,  -42.3
1999/06/01 22:20,  999.0,   -1.6,   -3.1,   -3.7,   -1.6,   -1.6,   -1.1,   -1.1,   -0.4,   -0.1,   -0.5,   -0.4,   -0.3,   -1.0,   -1.1,   -1.8,   -1.1,   -0.9,   -1.4,   -4.8,   -7.6,  999.0,  -14.1,  999.0,  999.0,  999.0,  999.0,  999.0,  999.0,  999.0,  999.0,  -42.0,  999.0,  -42.5,  999.0,  -42.7,  -42.0,  -42.0,  -42.4,  -42.2,  999.0,  -42.5,  -41.8,  -41.0,  -41.7,  -42.0,  -41.5,  -42.0,  -41.5,  -41.9,  -41.6,  -42.0,  -41.4,  -41.4,  -41.3,  999.0,  -42.3,  -41.6
1999/06/01 22:30,  999.0,   -1.3,   -3.8,   -3.2,   -2.8,   -0.7,   -1.4,  999.0,   -1.2,   -0.1,   -0.7,   -0.5,   -0.4,   -1.3,   -1.8,   -1.6,   -1.4,   -0.9,   -2.0,   -3.8,   -6.3,  999.0,  999.0,  999.0,  999.0,  999.0,  999.0,  999.0,  999.0,  999.0,  -41.7,  -39.8,  -39.1,  -41.1,  999.0,  -42.4,  -42.4,  -41.9,  -41.7,  -41.6,  -41.7,  -41.6,  -41.9,  999.0,  -42.9,  -42.6,  -41.7,  -41.8,  -41.9,  -42.6,  -42.0,  -41.8,  -41.5,  -41.5,  -41.7,  -41.9,  999.0,  -41.7
1999/06/01 22:40,  999.0,   -2.0,   -4.3,   -3.8,   -3.4,   -1.1,   -1.9,   -1.7,   -1.3,   -0.8,   -0.9,   -1.2,   -1.3,   -1.1,   -1.4,   -1.2,   -1.6,   -1.3,   -2.0,   -4.0,   -7.2,  999.0,  999.0,  999.0,  999.0,  999.0,  999.0,  999.0,  999.0,  999.0,  -42.8,  -42.9,  999.0,  -41.8,  -41.8,  -41.7,  -41.6,  -41.9,  -41.8,  -41.7,  -42.1,  -41.8,  -41.7,  -41.9,  -41.9,  -41.6,  -41.9,  -41.7,  -41.8,  -41.9,  -41.7,  -42.0,  -42.0,  -41.8,  -42.4,  -42.2,  -42.0,  -41.3
1999/06/01 22:50,  999.0,   -2.8,   -3.6,   -3.6,   -3.6,   -0.8,   -1.5,   -2.5,   -0.8,   -1.1,   -2.4,   -2.3,   -0.3,   -0.3,   -0.3,   -1.4,   -1.7,   -2.6,   -2.6,   -3.2,   -5.2,  999.0,  999.0,  999.0,  999.0,  999.0,  999.0,  999.0,  999.0,  999.0,  -41.5,  -41.7,  999.0,  -41.7,  -41.9,  -41.8,  -41.4,  -41.9,  -41.7,  -42.2,  -41.8,  -41.9,  -42.0,  -41.8,  -41.7,  -41.6,  -41.8,  -41.8,  999.0,  -41.5,  -41.7,  -42.2,  -42.3,  -41.7,  -42.0,  -41.6,  -41.8,  -42.2
1999/06/01 23:00,  999.0,   -4.5,   -4.6,   -4.7,   -0.1,   -2.3,   -2.4,   -2.7,   -1.7,   -2.0,   -1.2,   -0.9,   -0.7,   -0.9,   -0.8,   -1.5,   -2.4,   -2.9,   -3.1,   -4.2,   -6.5,  999.0,  999.0,  999.0,  999.0,  999.0,  999.0,  999.0,  999.0,  999.0,  -42.1,  -42.0,  -42.4,  -40.7,  -41.0,  -41.6,  -42.0,  -41.1,  -41.2,  999.0,  -41.7,  -41.6,  -41.5,  -41.8,  -41.7,  -42.2,  -42.0,  -41.8,  -41.9,  -41.7,  -42.1,  -42.2,  -41.7,  -42.1,  -42.0,  -42.2,  -42.3,  -42.1
1999/06/01 23:10,  999.0,   -1.7,   -1.7,   -3.7,   -0.8,   -0.9,   -1.4,   -1.9,   -0.3,   -1.4,   -1.5,   -0.5,   -1.2,  999.0,  999.0,   -1.9,    0.6,   -4.1,   -5.6,   -7.1,   -7.4,  999.0,  999.0,  999.0,  999.0,  999.0,  999.0,  999.0,  999.0,  -42.2,  -41.6,  -41.4,  -41.8,  -41.5,  -41.1,  -43.3,  -41.8,  -41.7,  -41.9,  -41.6,  -41.5,  -41.5,  -41.7,  -42.0,  -41.8,  -41.6,  -42.7,  -42.0,  -41.5,  -41.5,  -41.4,  -41.6,  -42.1,  -41.7,  -42.3,  -41.5,  -41.4,  -41.3
1999/06/01 23:20,  999.0,   -2.9,   -3.9,  999.0,   -1.9,   -3.9,   -3.4,   -2.1,   -1.6,   -1.0,   -1.4,    0.3,    1.6,   -0.7,   -0.3,   -1.5,   -0.2,   -1.5,   -4.7,   -8.6,   -7.9,  -13.3,  -12.1,  999.0,  999.0,  -33.1,  -34.6,  999.0,  -36.9,  -39.3,  -40.9,  -42.0,  -41.8,  -41.4,  -41.8,  -42.1,  -41.8,  -42.1,  -41.8,  -42.1,  -42.0,  -41.8,  -41.8,  -41.6,  -41.5,  -41.6,  -41.8,  -41.9,  -42.0,  -41.7,  -42.0,  -42.0,  -42.5,  -42.2,  -41.6,  -42.0,  -41.7,  -41.7
1999/06/01 23:30,  999.0,   -2.6,   -3.2,   -4.8,   -4.5,   -3.2,   -3.2,   -1.8,   -1.2,   -1.1,   -1.1,   -2.2,   -3.4,   -2.3,   -1.3,   -1.5,   -3.7,   -2.3,   -3.6,   -3.2,   -2.9,  999.0,  999.0,  -25.9,  -29.4,  -28.1,  999.0,  -34.1,  -37.2,  -37.3,  -39.5,  -41.2,  -42.4,  -41.9,  -41.6,  -41.6,  -42.0,  -41.7,  -41.8,  -42.0,  -42.3,  -42.3,  -41.7,  -42.3,  -41.7,  -41.4,  -42.1,  999.0,  -42.6,  -41.8,  -41.8,  -41.8,  -41.9,  -42.2,  -41.7,  -42.3,  -41.6,  -41.7
1999/06/01 23:40,  999.0,   -0.3,   -1.2,   -2.5,   -4.6,   -2.4,   -2.4,   -1.9,   -1.9,   -1.3,   -1.0,   -1.5,  999.0,  999.0,   -0.2,   -2.1,   -1.0,   -2.2,   -1.9,  999.0,  999.0,  999.0,  999.0,  -26.6,  -28.6,  -31.4,  -32.0,  -34.0,  999.0,  -37.0,  -39.8,  -41.9,  -41.9,  -41.9,  -41.7,  -41.8,  -41.8,  -41.9,  -41.7,  -41.6,  -41.6,  -41.8,  -41.5,  -42.0,  -42.7,  -41.9,  -42.3,  -41.7,  -41.9,  -41.4,  999.0,  -42.0,  -41.1,  -41.8,  -41.7,  -41.8,  -41.6,  -41.7
1999/06/01 23:50,  999.0,   -1.5,   -1.4,   -3.6,   -3.5,   -1.5,   -1.0,   -1.2,   -0.6,   -2.1,   -1.1,  999.0,  999.0,  999.0,  999.0,  999.0,  999.0,  999.0,  999.0,  999.0,  999.0,  -26.5,  999.0,  -28.2,  -30.4,  -32.1,  -33.9,  -35.5,  -37.4,  -39.2,  -41.1,  -42.3,  -41.8,  -42.1,  -42.0,  -41.9,  -41.8,  -41.9,  -42.2,  -42.2,  -41.8,  -41.8,  999.0,  -41.5,  -42.6,  -41.7,  -41.3,  -41.5,  -42.4,  -42.6,  -42.3,  -42.0,  -41.7,  -41.7,  -41.9,  -41.9,  -42.0,  -42.0
